Time,TemperatureF,DewpointF,PressureIn,WindDirection,WindDirectionDegrees,WindSpeedMPH,WindSpeedGustMPH,Humidity,HourlyPrecipIn,Conditions,Clouds,dailyrainin,SoftwareType,DateUTC
2013-04-01 00:00:00,73.5,65.0,30.06,SE,141,7.4,10.5,73,0.00,,,0.00,TxWx,2013-04-01 04:00:00,
2013-04-01 00:02:00,73.7,65.0,30.06,SSE,163,8.0,8.7,73,0.00,,,0.00,TxWx,2013-04-01 04:02:00,
2013-04-01 00:05:00,73.6,65.0,30.06,SSE,163,6.2,7.4,73,0.00,,,0.00,TxWx,2013-04-01 04:05:00,
2013-04-01 00:06:00,73.7,65.0,30.06,SE,141,6.8,7.4,73,0.00,,,0.00,TxWx,2013-04-01 04:06:00,
2013-04-01 00:07:00,73.7,65.0,30.06,South,186,9.3,10.5,74,0.00,,,0.00,TxWx,2013-04-01 04:07:00,
2013-04-01 00:11:00,73.5,65.0,30.06,SSE,163,6.8,7.4,74,0.00,,,0.00,TxWx,2013-04-01 04:11:00,
2013-04-01 00:12:00,73.6,65.0,30.06,ESE,118,6.2,7.4,74,0.00,,,0.00,TxWx,2013-04-01 04:12:00,
2013-04-01 00:13:00,73.5,64.0,30.06,SSE,163,9.9,9.9,74,0.00,,,0.00,TxWx,2013-04-01 04:13:00,
2013-04-01 00:17:00,73.6,65.0,30.06,SSE,163,8.7,8.7,74,0.00,,,0.00,TxWx,2013-04-01 04:17:00,
2013-04-01 00:18:00,73.5,65.0,30.06,SE,141,7.4,8.7,75,0.00,,,0.00,TxWx,2013-04-01 04:18:00,
2013-04-01 00:21:00,73.5,65.0,30.06,SE,141,7.4,8.0,75,0.00,,,0.00,TxWx,2013-04-01 04:21:00,
2013-04-01 00:22:00,73.4,64.0,30.06,SE,141,7.4,8.7,75,0.00,,,0.00,TxWx,2013-04-01 04:22:00,
2013-04-01 00:23:00,73.4,64.0,30.05,SE,141,8.7,9.9,75,0.00,,,0.00,TxWx,2013-04-01 04:23:00,
2013-04-01 00:27:00,73.3,64.0,30.05,SSE,163,10.5,10.5,74,0.00,,,0.00,TxWx,2013-04-01 04:27:00,
2013-04-01 00:29:00,73.5,64.0,30.05,SSE,163,6.8,7.4,74,0.00,,,0.00,TxWx,2013-04-01 04:29:00,
2013-04-01 00:31:00,73.8,65.0,30.05,SSE,163,5.6,6.8,75,0.00,,,0.00,TxWx,2013-04-01 04:31:00,
2013-04-01 00:32:00,73.7,66.0,30.06,SSE,163,11.1,11.8,75,0.00,,,0.00,TxWx,2013-04-01 04:32:00,
2013-04-01 00:34:00,73.5,64.0,30.06,SSE,163,8.0,8.0,75,0.00,,,0.00,TxWx,2013-04-01 04:34:00,
2013-04-01 00:36:00,73.4,64.0,30.05,SE,141,9.9,9.9,75,0.00,,,0.00,TxWx,2013-04-01 04:36:00,
2013-04-01 00:39:00,73.8,66.0,30.06,SSE,163,8.0,8.0,75,0.00,,,0.00,TxWx,2013-04-01 04:39:00,
2013-04-01 00:41:00,73.4,64.0,30.05,SE,141,9.9,10.5,75,0.00,,,0.00,TxWx,2013-04-01 04:41:00,
2013-04-01 00:42:00,73.6,66.0,30.05,SSE,163,9.3,9.3,75,0.00,,,0.00,TxWx,2013-04-01 04:42:00,
2013-04-01 00:45:00,73.6,66.0,30.05,SE,141,9.3,9.3,75,0.00,,,0.00,TxWx,2013-04-01 04:45:00,
2013-04-01 00:48:00,73.4,65.0,30.06,SSE,163,12.4,12.4,75,0.00,,,0.00,TxWx,2013-04-01 04:48:00,
2013-04-01 00:50:00,73.6,66.0,30.05,South,186,8.7,8.7,75,0.00,,,0.00,TxWx,2013-04-01 04:50:00,
2013-04-01 00:51:00,73.6,66.0,30.05,SE,141,8.0,8.0,75,0.00,,,0.00,TxWx,2013-04-01 04:51:00,
2013-04-01 00:55:00,73.6,66.0,30.05,SSE,163,9.3,11.1,75,0.00,,,0.00,TxWx,2013-04-01 04:55:00,
2013-04-01 00:56:00,73.5,66.0,30.05,SSE,163,7.4,9.3,75,0.00,,,0.00,TxWx,2013-04-01 04:56:00,
2013-04-01 00:57:00,73.6,66.0,30.05,ESE,118,8.0,8.0,75,0.00,,,0.00,TxWx,2013-04-01 04:57:00,
2013-04-01 01:01:00,73.6,66.0,30.05,SSE,163,7.4,8.7,76,0.00,,,0.00,TxWx,2013-04-01 05:01:00,
2013-04-01 01:02:00,73.5,65.0,30.05,SE,141,9.9,11.1,76,0.00,,,0.00,TxWx,2013-04-01 05:02:00,
2013-04-01 01:03:00,73.5,66.0,30.05,ESE,118,8.7,8.7,76,0.00,,,0.00,TxWx,2013-04-01 05:03:00,
2013-04-01 01:06:00,73.5,66.0,30.05,SE,141,9.3,9.3,76,0.00,,,0.00,TxWx,2013-04-01 05:06:00,
2013-04-01 01:08:00,73.5,65.0,30.05,SSE,163,12.4,12.4,76,0.00,,,0.00,TxWx,2013-04-01 05:08:00,
2013-04-01 01:09:00,73.5,66.0,30.05,SSE,163,11.1,11.1,76,0.00,,,0.00,TxWx,2013-04-01 05:09:00,
2013-04-01 01:11:00,73.8,66.0,30.05,SE,141,6.2,7.4,77,0.00,,,0.00,TxWx,2013-04-01 05:11:00,
2013-04-01 01:14:00,73.7,66.0,30.05,SE,141,7.4,7.4,77,0.00,,,0.00,TxWx,2013-04-01 05:14:00,
2013-04-01 01:15:00,73.8,66.0,30.05,ESE,118,6.8,6.8,77,0.00,,,0.00,TxWx,2013-04-01 05:15:00,
2013-04-01 01:16:00,73.6,66.0,30.05,SE,141,6.2,7.4,77,0.00,,,0.00,TxWx,2013-04-01 05:16:00,
2013-04-01 01:17:00,73.5,65.0,30.05,SSE,163,8.0,8.0,77,0.00,,,0.00,TxWx,2013-04-01 05:17:00,
2013-04-01 01:19:00,73.6,66.0,30.04,ESE,118,9.9,10.5,77,0.00,,,0.00,TxWx,2013-04-01 05:19:00,
2013-04-01 01:20:00,73.4,65.0,30.04,SE,141,8.0,8.0,77,0.00,,,0.00,TxWx,2013-04-01 05:20:00,
2013-04-01 01:23:00,73.5,66.0,30.04,ESE,118,8.7,8.7,77,0.00,,,0.00,TxWx,2013-04-01 05:23:00,
2013-04-01 01:25:00,73.6,66.0,30.04,SE,141,9.9,9.9,78,0.00,,,0.00,TxWx,2013-04-01 05:25:00,
2013-04-01 01:27:00,73.3,65.0,30.04,SSE,163,10.5,11.8,77,0.00,,,0.00,TxWx,2013-04-01 05:27:00,
2013-04-01 01:30:00,73.5,66.0,30.04,SE,141,8.0,8.0,78,0.00,,,0.00,TxWx,2013-04-01 05:30:00,
2013-04-01 01:31:00,73.5,66.0,30.04,SSE,163,8.0,8.7,78,0.00,,,0.00,TxWx,2013-04-01 05:31:00,
2013-04-01 01:32:00,73.6,66.0,30.04,SSE,163,6.8,6.8,78,0.00,,,0.00,TxWx,2013-04-01 05:32:00,
2013-04-01 01:33:00,73.4,66.0,30.04,SE,141,8.0,8.7,78,0.00,,,0.00,TxWx,2013-04-01 05:33:00,
2013-04-01 01:35:00,73.6,66.0,30.04,SE,141,8.0,8.7,78,0.00,,,0.00,TxWx,2013-04-01 05:35:00,
2013-04-01 01:37:00,73.5,66.0,30.04,SE,141,6.8,9.3,78,0.00,,,0.00,TxWx,2013-04-01 05:37:00,
2013-04-01 01:38:00,73.5,66.0,30.04,SSE,163,9.9,9.9,78,0.00,,,0.00,TxWx,2013-04-01 05:38:00,
2013-04-01 01:40:00,73.5,66.0,30.04,SSE,163,7.4,7.4,78,0.00,,,0.00,TxWx,2013-04-01 05:40:00,
2013-04-01 01:42:00,73.6,66.0,30.03,SE,141,11.8,11.8,78,0.00,,,0.00,TxWx,2013-04-01 05:42:00,
2013-04-01 01:44:00,73.5,66.0,30.03,SE,141,9.9,11.1,77,0.00,,,0.00,TxWx,2013-04-01 05:44:00,
2013-04-01 01:45:00,73.6,66.0,30.03,SE,141,11.1,11.1,77,0.00,,,0.00,TxWx,2013-04-01 05:45:00,
2013-04-01 01:47:00,73.7,66.0,30.04,South,186,12.4,13.6,78,0.00,,,0.00,TxWx,2013-04-01 05:47:00,
2013-04-01 01:50:00,73.8,66.0,30.04,SE,141,9.9,9.9,78,0.00,,,0.00,TxWx,2013-04-01 05:50:00,
2013-04-01 01:51:00,73.7,66.0,30.04,SSE,163,13.0,13.6,77,0.00,,,0.00,TxWx,2013-04-01 05:51:00,
2013-04-01 01:53:00,73.7,66.0,30.04,SE,141,9.3,13.0,77,0.00,,,0.00,TxWx,2013-04-01 05:53:00,
2013-04-01 01:56:00,73.7,66.0,30.03,SSE,163,11.8,14.9,77,0.00,,,0.00,TxWx,2013-04-01 05:56:00,
2013-04-01 01:58:00,73.8,66.0,30.03,SE,141,9.9,10.5,77,0.00,,,0.00,TxWx,2013-04-01 05:58:00,
2013-04-01 02:02:00,73.9,66.0,30.03,SSE,163,13.0,13.0,77,0.00,,,0.00,TxWx,2013-04-01 06:02:00,
2013-04-01 02:03:00,73.8,66.0,30.03,SE,141,7.4,8.0,77,0.00,,,0.00,TxWx,2013-04-01 06:03:00,
2013-04-01 02:04:00,73.8,66.0,30.03,SSE,163,8.7,8.7,78,0.00,,,0.00,TxWx,2013-04-01 06:04:00,
2013-04-01 02:07:00,73.9,67.0,30.03,SSE,163,7.4,8.7,78,0.00,,,0.00,TxWx,2013-04-01 06:07:00,
2013-04-01 02:08:00,73.8,67.0,30.03,SE,141,5.6,5.6,79,0.00,,,0.00,TxWx,2013-04-01 06:08:00,
2013-04-01 02:09:00,73.8,67.0,30.03,SE,141,8.7,8.7,79,0.00,,,0.00,TxWx,2013-04-01 06:09:00,
2013-04-01 02:12:00,73.8,67.0,30.02,SE,141,9.3,13.0,79,0.00,,,0.00,TxWx,2013-04-01 06:12:00,
2013-04-01 02:14:00,73.7,67.0,30.02,SSE,163,14.9,14.9,79,0.00,,,0.00,TxWx,2013-04-01 06:14:00,
2013-04-01 02:19:00,73.9,67.0,30.02,SSE,163,11.1,11.1,79,0.00,,,0.00,TxWx,2013-04-01 06:19:00,
2013-04-01 02:20:00,73.9,67.0,30.02,SSE,163,11.8,11.8,79,0.00,,,0.00,TxWx,2013-04-01 06:20:00,
2013-04-01 02:21:00,73.7,67.0,30.02,SE,141,13.6,14.2,79,0.00,,,0.00,TxWx,2013-04-01 06:21:00,
2013-04-01 02:25:00,73.7,67.0,30.02,SSE,163,14.2,14.2,78,0.00,,,0.00,TxWx,2013-04-01 06:25:00,
2013-04-01 02:26:00,73.9,67.0,30.02,SSE,163,16.1,16.1,79,0.00,,,0.00,TxWx,2013-04-01 06:26:00,
2013-04-01 02:27:00,73.8,67.0,30.02,SE,141,13.6,13.6,78,0.00,,,0.00,TxWx,2013-04-01 06:27:00,
2013-04-01 02:31:00,73.8,67.0,30.02,SE,141,14.2,14.2,78,0.00,,,0.00,TxWx,2013-04-01 06:31:00,
2013-04-01 02:32:00,73.8,67.0,30.02,SSE,163,11.8,11.8,78,0.00,,,0.00,TxWx,2013-04-01 06:32:00,
2013-04-01 02:35:00,73.7,67.0,30.01,SE,141,11.1,14.2,78,0.00,,,0.00,TxWx,2013-04-01 06:35:00,
2013-04-01 02:36:00,73.8,67.0,30.01,SE,141,10.5,10.5,78,0.00,,,0.00,TxWx,2013-04-01 06:36:00,
2013-04-01 02:37:00,73.6,67.0,30.02,ESE,118,14.9,15.5,78,0.00,,,0.00,TxWx,2013-04-01 06:37:00,
2013-04-01 02:38:00,73.7,67.0,30.02,SE,141,14.9,14.9,78,0.00,,,0.00,TxWx,2013-04-01 06:38:00,
2013-04-01 02:42:00,73.5,67.0,30.01,SE,141,12.4,12.4,78,0.00,,,0.00,TxWx,2013-04-01 06:42:00,
2013-04-01 02:43:00,73.7,67.0,30.01,SE,141,13.0,13.0,78,0.00,,,0.00,TxWx,2013-04-01 06:43:00,
2013-04-01 02:44:00,73.6,67.0,30.01,SE,141,14.2,14.2,78,0.00,,,0.00,TxWx,2013-04-01 06:44:00,
2013-04-01 02:47:00,73.5,66.0,30.01,SE,141,10.5,12.4,78,0.00,,,0.00,TxWx,2013-04-01 06:47:00,
2013-04-01 02:49:00,73.7,67.0,30.01,SSE,163,12.4,12.4,78,0.00,,,0.00,TxWx,2013-04-01 06:49:00,
2013-04-01 02:52:00,73.6,67.0,30.01,SE,141,14.9,14.9,78,0.00,,,0.00,TxWx,2013-04-01 06:52:00,
2013-04-01 02:53:00,73.6,67.0,30.01,SE,141,14.2,14.2,78,0.00,,,0.00,TxWx,2013-04-01 06:53:00,
2013-04-01 02:54:00,73.6,67.0,30.01,SSE,163,16.1,17.3,79,0.00,,,0.00,TxWx,2013-04-01 06:54:00,
2013-04-01 02:56:00,73.6,67.0,30.01,SE,141,14.9,14.9,78,0.00,,,0.00,TxWx,2013-04-01 06:56:00,
2013-04-01 02:58:00,73.5,67.0,30.01,SE,141,17.9,18.6,79,0.00,,,0.00,TxWx,2013-04-01 06:58:00,
2013-04-01 02:59:00,73.8,67.0,30.01,ESE,118,8.7,11.8,79,0.00,,,0.00,TxWx,2013-04-01 06:59:00,
2013-04-01 03:00:00,73.8,67.0,30.01,SE,141,11.8,11.8,79,0.00,,,0.00,TxWx,2013-04-01 07:00:00,
2013-04-01 03:04:00,73.6,67.0,30.01,SSE,163,16.1,16.1,79,0.00,,,0.00,TxWx,2013-04-01 07:04:00,
2013-04-01 03:05:00,73.5,67.0,30.01,SSE,163,17.3,17.3,79,0.00,,,0.00,TxWx,2013-04-01 07:05:00,
2013-04-01 03:06:00,73.5,67.0,30.01,SE,141,17.9,17.9,79,0.00,,,0.00,TxWx,2013-04-01 07:06:00,
2013-04-01 03:10:00,73.6,67.0,30.01,SE,141,13.0,18.6,79,0.00,,,0.00,TxWx,2013-04-01 07:10:00,
2013-04-01 03:11:00,73.7,67.0,30.01,SSE,163,8.0,9.9,79,0.00,,,0.00,TxWx,2013-04-01 07:11:00,
2013-04-01 03:12:00,73.7,67.0,30.01,SSE,163,17.9,18.6,79,0.00,,,0.00,TxWx,2013-04-01 07:12:00,
2013-04-01 03:13:00,73.5,67.0,30.01,SSE,163,13.0,13.6,79,0.00,,,0.00,TxWx,2013-04-01 07:13:00,
2013-04-01 03:16:00,73.9,67.0,30.01,ESE,118,9.3,10.5,80,0.00,,,0.00,TxWx,2013-04-01 07:16:00,
2013-04-01 03:17:00,73.9,67.0,30.01,SSE,163,11.1,11.1,80,0.00,,,0.00,TxWx,2013-04-01 07:17:00,
2013-04-01 03:18:00,73.9,68.0,30.01,ESE,118,6.8,6.8,81,0.00,,,0.00,TxWx,2013-04-01 07:18:00,
2013-04-01 03:22:00,73.5,67.0,30.01,SE,141,10.5,10.5,80,0.00,,,0.00,TxWx,2013-04-01 07:22:00,
2013-04-01 03:23:00,73.5,67.0,30.01,SSE,163,16.7,16.7,80,0.00,,,0.00,TxWx,2013-04-01 07:23:00,
2013-04-01 03:25:00,73.8,67.0,30.01,South,186,9.9,10.5,80,0.00,,,0.00,TxWx,2013-04-01 07:25:00,
2013-04-01 03:28:00,73.7,67.0,30.01,South,186,13.6,13.6,80,0.00,,,0.00,TxWx,2013-04-01 07:28:00,
2013-04-01 03:29:00,73.7,67.0,30.01,SE,141,4.3,4.3,80,0.00,,,0.00,TxWx,2013-04-01 07:29:00,
2013-04-01 03:31:00,73.6,67.0,30.01,South,186,5.6,5.6,80,0.00,,,0.00,TxWx,2013-04-01 07:31:00,
2013-04-01 03:33:00,73.5,67.0,30.01,SSE,163,5.0,6.8,80,0.00,,,0.00,TxWx,2013-04-01 07:33:00,
2013-04-01 03:34:00,73.6,67.0,30.01,SE,141,8.0,9.9,80,0.00,,,0.00,TxWx,2013-04-01 07:34:00,
2013-04-01 03:35:00,73.6,67.0,30.01,South,186,9.9,11.8,80,0.00,,,0.00,TxWx,2013-04-01 07:35:00,
2013-04-01 03:37:00,73.6,67.0,30.01,SE,141,8.0,8.7,80,0.00,,,0.00,TxWx,2013-04-01 07:37:00,
2013-04-01 03:40:00,73.7,67.0,30.01,SSE,163,6.2,6.2,80,0.00,,,0.00,TxWx,2013-04-01 07:40:00,
2013-04-01 03:43:00,73.6,67.0,30.01,SSE,163,6.2,6.2,80,0.00,,,0.00,TxWx,2013-04-01 07:43:00,
2013-04-01 03:45:00,73.7,67.0,30.01,SSE,163,5.6,5.6,80,0.00,,,0.00,TxWx,2013-04-01 07:45:00,
2013-04-01 03:46:00,73.6,67.0,30.01,SE,141,4.3,4.3,80,0.00,,,0.00,TxWx,2013-04-01 07:46:00,
2013-04-01 03:48:00,73.6,67.0,30.01,South,186,6.2,6.2,80,0.00,,,0.00,TxWx,2013-04-01 07:48:00,
2013-04-01 03:51:00,73.6,67.0,30.01,SSE,163,11.8,11.8,80,0.00,,,0.00,TxWx,2013-04-01 07:51:00,
2013-04-01 03:53:00,73.6,67.0,30.01,SW,231,4.3,5.0,80,0.00,,,0.00,TxWx,2013-04-01 07:53:00,
2013-04-01 03:57:00,73.7,67.0,30.00,ESE,118,8.0,8.0,80,0.00,,,0.00,TxWx,2013-04-01 07:57:00,
2013-04-01 03:58:00,73.8,68.0,30.00,SSE,163,5.6,6.2,81,0.00,,,0.00,TxWx,2013-04-01 07:58:00,
2013-04-01 03:59:00,73.8,68.0,30.00,SE,141,8.0,9.9,81,0.00,,,0.00,TxWx,2013-04-01 07:59:00,
2013-04-01 04:03:00,73.6,67.0,30.00,SSW,208,3.7,5.0,80,0.00,,,0.00,TxWx,2013-04-01 08:03:00,
2013-04-01 04:04:00,73.7,67.0,30.00,East,96,5.0,6.2,80,0.00,,,0.00,TxWx,2013-04-01 08:04:00,
2013-04-01 04:06:00,73.8,68.0,30.00,SSE,163,9.9,13.0,81,0.00,,,0.00,TxWx,2013-04-01 08:06:00,
2013-04-01 04:09:00,73.9,68.0,30.00,SSW,208,8.7,8.7,81,0.00,,,0.00,TxWx,2013-04-01 08:09:00,
2013-04-01 04:10:00,73.8,68.0,30.00,South,186,8.0,8.0,81,0.00,,,0.00,TxWx,2013-04-01 08:10:00,
2013-04-01 04:11:00,73.8,68.0,30.01,SE,141,6.2,6.2,81,0.00,,,0.00,TxWx,2013-04-01 08:11:00,
2013-04-01 04:14:00,73.6,67.0,30.01,SSW,208,10.5,10.5,80,0.00,,,0.00,TxWx,2013-04-01 08:14:00,
2013-04-01 04:16:00,73.6,67.0,30.01,South,186,6.8,10.5,80,0.00,,,0.00,TxWx,2013-04-01 08:16:00,
2013-04-01 04:19:00,73.7,67.0,30.00,South,186,5.6,5.6,80,0.00,,,0.00,TxWx,2013-04-01 08:19:00,
2013-04-01 04:21:00,73.7,67.0,30.00,SSW,208,6.8,6.8,80,0.00,,,0.00,TxWx,2013-04-01 08:21:00,
2013-04-01 04:22:00,73.7,67.0,30.00,SW,231,3.1,3.7,80,0.00,,,0.00,TxWx,2013-04-01 08:22:00,
2013-04-01 04:24:00,73.8,68.0,30.00,SE,141,10.5,10.5,81,0.00,,,0.00,TxWx,2013-04-01 08:24:00,
2013-04-01 04:27:00,73.7,68.0,30.00,SSE,163,13.6,13.6,81,0.00,,,0.00,TxWx,2013-04-01 08:27:00,
2013-04-01 04:29:00,73.8,68.0,30.00,SSE,163,15.5,15.5,81,0.00,,,0.00,TxWx,2013-04-01 08:29:00,
2013-04-01 04:30:00,73.7,68.0,30.00,SE,141,14.2,14.2,81,0.00,,,0.00,TxWx,2013-04-01 08:30:00,
2013-04-01 04:32:00,73.8,68.0,30.00,ESE,118,6.8,6.8,81,0.00,,,0.00,TxWx,2013-04-01 08:32:00,
2013-04-01 04:34:00,73.8,68.0,30.00,SSE,163,7.4,8.7,81,0.00,,,0.00,TxWx,2013-04-01 08:34:00,
2013-04-01 04:36:00,73.8,68.0,30.00,SE,141,5.6,5.6,81,0.00,,,0.00,TxWx,2013-04-01 08:36:00,
2013-04-01 04:39:00,73.7,68.0,30.00,SW,231,3.7,4.3,81,0.00,,,0.00,TxWx,2013-04-01 08:39:00,
2013-04-01 04:41:00,73.6,68.0,30.00,SSE,163,2.5,3.7,81,0.00,,,0.00,TxWx,2013-04-01 08:41:00,
2013-04-01 04:45:00,73.4,67.0,30.00,SSE,163,3.1,3.7,81,0.00,,,0.00,TxWx,2013-04-01 08:45:00,
2013-04-01 04:46:00,73.3,67.0,30.00,SSE,163,3.1,3.1,81,0.00,,,0.00,TxWx,2013-04-01 08:46:00,
2013-04-01 04:50:00,73.3,67.0,30.00,South,186,3.1,3.7,81,0.00,,,0.00,TxWx,2013-04-01 08:50:00,
2013-04-01 04:51:00,73.3,67.0,30.00,SW,231,1.9,2.5,81,0.00,,,0.00,TxWx,2013-04-01 08:51:00,
2013-04-01 04:52:00,73.3,67.0,30.00,SSW,208,5.0,5.0,81,0.00,,,0.00,TxWx,2013-04-01 08:52:00,
2013-04-01 04:56:00,73.3,67.0,30.00,South,186,3.7,3.7,81,0.00,,,0.00,TxWx,2013-04-01 08:56:00,
2013-04-01 04:57:00,73.3,67.0,30.00,SSW,208,3.7,4.3,81,0.00,,,0.00,TxWx,2013-04-01 08:57:00,
2013-04-01 04:59:00,73.3,67.0,30.00,SW,231,1.2,1.9,81,0.00,,,0.00,TxWx,2013-04-01 08:59:00,
2013-04-01 05:02:00,73.4,67.0,30.00,SSE,163,6.8,6.8,81,0.00,,,0.00,TxWx,2013-04-01 09:02:00,
2013-04-01 05:03:00,73.5,67.0,30.00,SE,141,8.7,8.7,81,0.00,,,0.00,TxWx,2013-04-01 09:03:00,
2013-04-01 05:04:00,73.5,67.0,30.00,SSE,163,5.0,5.0,81,0.00,,,0.00,TxWx,2013-04-01 09:04:00,
2013-04-01 05:08:00,73.5,68.0,30.00,South,186,8.7,8.7,81,0.00,,,0.00,TxWx,2013-04-01 09:08:00,
2013-04-01 05:09:00,73.5,67.0,30.00,SE,141,4.3,4.3,81,0.00,,,0.00,TxWx,2013-04-01 09:09:00,
2013-04-01 05:13:00,73.5,67.0,30.00,SSE,163,5.0,5.0,81,0.00,,,0.00,TxWx,2013-04-01 09:13:00,
2013-04-01 05:14:00,73.5,67.0,30.00,SSW,208,6.2,6.2,81,0.00,,,0.00,TxWx,2013-04-01 09:14:00,
2013-04-01 05:15:00,73.5,67.0,30.00,South,186,2.5,3.1,81,0.00,,,0.00,TxWx,2013-04-01 09:15:00,
2013-04-01 05:19:00,73.5,68.0,30.00,South,186,3.7,3.7,81,0.00,,,0.00,TxWx,2013-04-01 09:19:00,
2013-04-01 05:20:00,73.5,67.0,30.00,SSW,208,6.8,6.8,81,0.00,,,0.00,TxWx,2013-04-01 09:20:00,
2013-04-01 05:22:00,73.5,67.0,30.00,SSE,163,2.5,3.1,81,0.00,,,0.00,TxWx,2013-04-01 09:22:00,
2013-04-01 05:26:00,73.4,67.0,30.00,SE,141,4.3,4.3,81,0.00,,,0.00,TxWx,2013-04-01 09:26:00,
2013-04-01 05:27:00,73.4,67.0,30.00,SSW,208,5.6,5.6,81,0.00,,,0.00,TxWx,2013-04-01 09:27:00,
2013-04-01 05:28:00,73.4,67.0,30.00,SSW,208,4.3,5.0,81,0.00,,,0.00,TxWx,2013-04-01 09:28:00,
2013-04-01 05:31:00,73.4,67.0,30.00,SE,141,3.1,3.1,81,0.00,,,0.00,TxWx,2013-04-01 09:31:00,
2013-04-01 05:32:00,73.4,67.0,30.00,SW,231,4.3,4.3,81,0.00,,,0.00,TxWx,2013-04-01 09:32:00,
2013-04-01 05:33:00,73.4,67.0,30.00,SSW,208,6.2,7.4,81,0.00,,,0.00,TxWx,2013-04-01 09:33:00,
2013-04-01 05:36:00,73.3,67.0,30.00,SSW,208,1.9,2.5,82,0.00,,,0.00,TxWx,2013-04-01 09:36:00,
2013-04-01 05:37:00,73.2,67.0,30.00,East,96,2.5,2.5,82,0.00,,,0.00,TxWx,2013-04-01 09:37:00,
2013-04-01 05:38:00,73.3,67.0,30.00,SW,231,5.0,5.0,82,0.00,,,0.00,TxWx,2013-04-01 09:38:00,
2013-04-01 05:39:00,73.2,67.0,30.00,South,186,5.6,5.6,82,0.00,,,0.00,TxWx,2013-04-01 09:39:00,
2013-04-01 05:42:00,73.2,67.0,30.00,South,186,1.9,1.9,82,0.00,,,0.00,TxWx,2013-04-01 09:42:00,
2013-04-01 05:43:00,73.2,67.0,30.00,SSW,208,5.0,6.2,82,0.00,,,0.00,TxWx,2013-04-01 09:43:00,
2013-04-01 05:44:00,73.2,67.0,30.00,SW,231,2.5,2.5,82,0.00,,,0.00,TxWx,2013-04-01 09:44:00,
2013-04-01 05:48:00,73.0,67.0,30.00,ESE,118,2.5,2.5,82,0.00,,,0.00,TxWx,2013-04-01 09:48:00,
2013-04-01 05:49:00,73.0,67.0,30.00,SSW,208,5.0,5.0,82,0.00,,,0.00,TxWx,2013-04-01 09:49:00,
2013-04-01 05:51:00,73.0,67.0,30.00,SW,231,5.0,5.6,82,0.00,,,0.00,TxWx,2013-04-01 09:51:00,
2013-04-01 05:54:00,73.0,67.0,30.00,SSE,163,5.6,6.8,82,0.00,,,0.00,TxWx,2013-04-01 09:54:00,
2013-04-01 05:55:00,73.0,67.0,30.00,SW,231,2.5,3.1,82,0.00,,,0.00,TxWx,2013-04-01 09:55:00,
2013-04-01 05:58:00,73.0,67.0,30.00,SSW,208,4.3,4.3,82,0.00,,,0.00,TxWx,2013-04-01 09:58:00,
2013-04-01 05:59:00,73.0,67.0,30.00,WSW,253,4.3,4.3,82,0.00,,,0.00,TxWx,2013-04-01 09:59:00,
2013-04-01 06:01:00,73.0,67.0,30.00,SSW,208,5.6,5.6,82,0.00,,,0.00,TxWx,2013-04-01 10:01:00,
2013-04-01 06:03:00,73.1,67.0,30.00,SSE,163,3.7,4.3,82,0.00,,,0.00,TxWx,2013-04-01 10:03:00,
2013-04-01 06:04:00,73.1,67.0,30.00,South,186,9.9,9.9,82,0.00,,,0.00,TxWx,2013-04-01 10:04:00,
2013-04-01 06:07:00,73.1,67.0,30.00,SSW,208,1.9,2.5,82,0.00,,,0.00,TxWx,2013-04-01 10:07:00,
2013-04-01 06:08:00,73.1,67.0,30.00,SSW,208,6.2,7.4,82,0.00,,,0.00,TxWx,2013-04-01 10:08:00,
2013-04-01 06:09:00,73.1,67.0,30.00,SSE,163,5.6,6.2,82,0.00,,,0.00,TxWx,2013-04-01 10:09:00,
2013-04-01 06:12:00,73.2,67.0,30.00,SSW,208,7.4,7.4,82,0.00,,,0.00,TxWx,2013-04-01 10:12:00,
2013-04-01 06:13:00,73.2,67.0,30.00,South,186,5.0,5.0,82,0.00,,,0.00,TxWx,2013-04-01 10:13:00,
2013-04-01 06:17:00,73.2,67.0,30.00,South,186,2.5,3.7,82,0.00,,,0.00,TxWx,2013-04-01 10:17:00,
2013-04-01 06:18:00,73.2,67.0,30.00,SE,141,8.0,9.3,82,0.00,,,0.00,TxWx,2013-04-01 10:18:00,
2013-04-01 06:19:00,73.2,67.0,30.00,SSW,208,2.5,2.5,82,0.00,,,0.00,TxWx,2013-04-01 10:19:00,
2013-04-01 06:23:00,73.3,67.0,30.00,WSW,253,3.7,5.6,82,0.00,,,0.00,TxWx,2013-04-01 10:23:00,
2013-04-01 06:24:00,73.3,67.0,30.00,SE,141,1.9,1.9,82,0.00,,,0.00,TxWx,2013-04-01 10:24:00,
2013-04-01 06:28:00,73.3,67.0,30.00,SSE,163,3.7,4.3,82,0.00,,,0.00,TxWx,2013-04-01 10:28:00,
2013-04-01 06:29:00,73.3,67.0,30.00,SSW,208,1.9,2.5,82,0.00,,,0.00,TxWx,2013-04-01 10:29:00,
2013-04-01 06:32:00,73.4,67.0,30.00,WSW,253,4.3,4.3,82,0.00,,,0.00,TxWx,2013-04-01 10:32:00,
2013-04-01 06:33:00,73.4,67.0,30.01,SW,231,5.0,6.8,82,0.00,,,0.00,TxWx,2013-04-01 10:33:00,
2013-04-01 06:34:00,73.4,67.0,30.01,South,186,3.7,5.0,82,0.00,,,0.00,TxWx,2013-04-01 10:34:00,
2013-04-01 06:35:00,73.4,67.0,30.00,South,186,9.3,9.3,82,0.00,,,0.00,TxWx,2013-04-01 10:35:00,
2013-04-01 06:37:00,73.5,67.0,30.01,SE,141,5.0,6.2,81,0.00,,,0.00,TxWx,2013-04-01 10:37:00,
2013-04-01 06:38:00,73.5,68.0,30.01,SSE,163,7.4,10.5,81,0.00,,,0.00,TxWx,2013-04-01 10:38:00,
2013-04-01 06:39:00,73.5,68.0,30.01,SW,231,3.1,3.7,81,0.00,,,0.00,TxWx,2013-04-01 10:39:00,
2013-04-01 06:41:00,73.6,68.0,30.01,South,186,7.4,8.0,81,0.00,,,0.00,TxWx,2013-04-01 10:41:00,
2013-04-01 06:44:00,73.8,68.0,30.01,SSE,163,3.1,3.7,82,0.00,,,0.00,TxWx,2013-04-01 10:44:00,
2013-04-01 06:48:00,73.8,68.0,30.01,South,186,5.0,6.2,82,0.00,,,0.00,TxWx,2013-04-01 10:48:00,
2013-04-01 06:50:00,73.7,68.0,30.01,SSW,208,3.7,3.7,82,0.00,,,0.00,TxWx,2013-04-01 10:50:00,
2013-04-01 06:51:00,73.7,68.0,30.01,SSE,163,4.3,4.3,82,0.00,,,0.00,TxWx,2013-04-01 10:51:00,
2013-04-01 06:55:00,73.6,68.0,30.01,WSW,253,6.2,8.0,82,0.00,,,0.00,TxWx,2013-04-01 10:55:00,
2013-04-01 06:56:00,73.6,68.0,30.01,SSE,163,5.0,5.0,82,0.00,,,0.00,TxWx,2013-04-01 10:56:00,
2013-04-01 06:57:00,73.6,68.0,30.01,SE,141,3.7,3.7,82,0.00,,,0.00,TxWx,2013-04-01 10:57:00,
2013-04-01 07:00:00,73.6,68.0,30.01,ESE,118,6.8,8.0,82,0.00,,,0.00,TxWx,2013-04-01 11:00:00,
2013-04-01 07:01:00,73.6,68.0,30.01,SE,141,4.3,4.3,82,0.00,,,0.00,TxWx,2013-04-01 11:01:00,
2013-04-01 07:02:00,73.6,68.0,30.01,SW,231,7.4,7.4,82,0.00,,,0.00,TxWx,2013-04-01 11:02:00,
2013-04-01 07:05:00,73.6,68.0,30.01,SE,141,12.4,12.4,82,0.00,,,0.00,TxWx,2013-04-01 11:05:00,
2013-04-01 07:06:00,73.6,68.0,30.01,SSW,208,5.6,6.8,82,0.00,,,0.00,TxWx,2013-04-01 11:06:00,
2013-04-01 07:07:00,73.5,68.0,30.01,SSW,208,5.6,5.6,82,0.00,,,0.00,TxWx,2013-04-01 11:07:00,
2013-04-01 07:09:00,73.5,68.0,30.01,SSW,208,7.4,8.0,82,0.00,,,0.00,TxWx,2013-04-01 11:09:00,
2013-04-01 07:12:00,73.5,67.0,30.01,SE,141,3.1,3.7,83,0.00,,,0.00,TxWx,2013-04-01 11:12:00,
2013-04-01 07:13:00,73.5,67.0,30.01,SW,231,3.7,3.7,83,0.00,,,0.00,TxWx,2013-04-01 11:13:00,
2013-04-01 07:15:00,73.5,67.0,30.02,WSW,253,4.3,6.8,83,0.00,,,0.00,TxWx,2013-04-01 11:15:00,
2013-04-01 07:16:00,73.5,67.0,30.02,NNW,343,2.5,4.3,83,0.00,,,0.00,TxWx,2013-04-01 11:16:00,
2013-04-01 07:19:00,73.5,67.0,30.02,South,186,3.7,3.7,83,0.00,,,0.00,TxWx,2013-04-01 11:19:00,
2013-04-01 07:20:00,73.5,68.0,30.02,SE,141,4.3,4.3,83,0.00,,,0.00,TxWx,2013-04-01 11:20:00,
2013-04-01 07:24:00,73.5,68.0,30.02,South,186,1.2,1.2,83,0.00,,,0.00,TxWx,2013-04-01 11:24:00,
2013-04-01 07:25:00,73.5,68.0,30.02,SSW,208,2.5,2.5,83,0.00,,,0.00,TxWx,2013-04-01 11:25:00,
2013-04-01 07:28:00,73.5,68.0,30.02,ESE,118,1.9,2.5,83,0.00,,,0.00,TxWx,2013-04-01 11:28:00,
2013-04-01 07:30:00,73.5,68.0,30.02,SSW,208,2.5,3.1,83,0.00,,,0.00,TxWx,2013-04-01 11:30:00,
2013-04-01 07:31:00,73.4,68.0,30.02,SW,231,1.9,2.5,83,0.00,,,0.00,TxWx,2013-04-01 11:31:00,
2013-04-01 07:32:00,73.4,68.0,30.02,SSW,208,3.7,4.3,83,0.00,,,0.00,TxWx,2013-04-01 11:32:00,
2013-04-01 07:36:00,73.4,68.0,30.03,South,186,3.1,3.1,83,0.00,,,0.00,TxWx,2013-04-01 11:36:00,
2013-04-01 07:37:00,73.3,68.0,30.02,SSW,208,3.7,3.7,83,0.00,,,0.00,TxWx,2013-04-01 11:37:00,
2013-04-01 07:38:00,73.4,68.0,30.03,SSW,208,1.2,1.9,84,0.00,,,0.00,TxWx,2013-04-01 11:38:00,
2013-04-01 07:42:00,73.3,68.0,30.03,West,276,1.9,2.5,84,0.00,,,0.00,TxWx,2013-04-01 11:42:00,
2013-04-01 07:43:00,73.4,68.0,30.03,SW,231,1.2,1.2,84,0.00,,,0.00,TxWx,2013-04-01 11:43:00,
2013-04-01 07:44:00,73.3,68.0,30.03,WSW,253,2.5,2.5,84,0.00,,,0.00,TxWx,2013-04-01 11:44:00,
2013-04-01 07:47:00,73.4,68.0,30.03,SW,231,0.6,0.6,84,0.00,,,0.00,TxWx,2013-04-01 11:47:00,
2013-04-01 07:49:00,73.3,68.0,30.03,SW,231,0.6,1.2,84,0.00,,,0.00,TxWx,2013-04-01 11:49:00,
2013-04-01 07:52:00,73.3,68.0,30.04,WSW,253,1.9,1.9,84,0.00,,,0.00,TxWx,2013-04-01 11:52:00,
2013-04-01 07:53:00,73.3,68.0,30.03,WSW,253,1.2,1.9,84,0.00,,,0.00,TxWx,2013-04-01 11:53:00,
2013-04-01 07:55:00,73.3,68.0,30.04,WSW,253,3.1,3.7,84,0.00,,,0.00,TxWx,2013-04-01 11:55:00,
2013-04-01 07:58:00,73.4,68.0,30.04,SW,231,2.5,3.1,84,0.00,,,0.00,TxWx,2013-04-01 11:58:00,
2013-04-01 07:59:00,73.4,68.0,30.04,SSW,208,3.7,4.3,84,0.00,,,0.00,TxWx,2013-04-01 11:59:00,
2013-04-01 08:01:00,73.4,68.0,30.04,WSW,253,1.2,1.2,84,0.00,,,0.00,TxWx,2013-04-01 12:01:00,
2013-04-01 08:02:00,73.4,68.0,30.04,SSW,208,2.5,2.5,84,0.00,,,0.00,TxWx,2013-04-01 12:02:00,
2013-04-01 08:04:00,73.4,68.0,30.04,SW,231,1.2,1.2,84,0.00,,,0.00,TxWx,2013-04-01 12:04:00,
2013-04-01 08:05:00,73.4,68.0,30.03,WSW,253,0.6,0.6,84,0.00,,,0.00,TxWx,2013-04-01 12:05:00,
2013-04-01 08:06:00,73.4,68.0,30.04,WSW,253,1.2,1.9,84,0.00,,,0.00,TxWx,2013-04-01 12:06:00,
2013-04-01 08:10:00,73.4,68.0,30.04,WSW,253,2.5,2.5,84,0.00,,,0.00,TxWx,2013-04-01 12:10:00,
2013-04-01 08:11:00,73.3,68.0,30.04,WSW,253,1.9,2.5,84,0.00,,,0.00,TxWx,2013-04-01 12:11:00,
2013-04-01 08:12:00,73.3,68.0,30.04,WSW,253,4.3,4.3,84,0.00,,,0.00,TxWx,2013-04-01 12:12:00,
2013-04-01 08:13:00,73.3,68.0,30.04,WSW,253,3.1,3.1,84,0.00,,,0.00,TxWx,2013-04-01 12:13:00,
2013-04-01 08:17:00,73.3,68.0,30.04,WSW,253,3.7,4.3,84,0.00,,,0.00,TxWx,2013-04-01 12:17:00,
2013-04-01 08:18:00,73.3,68.0,30.04,WSW,253,2.5,3.1,84,0.00,,,0.00,TxWx,2013-04-01 12:18:00,
2013-04-01 08:23:00,73.3,68.0,30.05,West,276,5.0,5.0,84,0.00,,,0.00,TxWx,2013-04-01 12:23:00,
2013-04-01 08:25:00,73.3,68.0,30.05,West,276,4.3,4.3,84,0.00,,,0.00,TxWx,2013-04-01 12:25:00,
2013-04-01 08:28:00,73.1,68.0,30.05,WSW,253,2.5,3.1,84,0.00,,,0.00,TxWx,2013-04-01 12:28:00,
2013-04-01 08:30:00,73.1,68.0,30.05,WSW,253,2.5,2.5,84,0.00,,,0.00,TxWx,2013-04-01 12:30:00,
2013-04-01 08:32:00,73.1,68.0,30.05,West,276,2.5,2.5,84,0.00,,,0.00,TxWx,2013-04-01 12:32:00,
2013-04-01 08:34:00,73.0,68.0,30.05,WSW,253,2.5,3.1,84,0.00,,,0.00,TxWx,2013-04-01 12:34:00,
2013-04-01 08:35:00,72.9,68.0,30.05,WSW,253,3.1,3.7,84,0.00,,,0.00,TxWx,2013-04-01 12:35:00,
2013-04-01 08:37:00,72.8,68.0,30.05,WSW,253,3.7,3.7,84,0.00,,,0.00,TxWx,2013-04-01 12:37:00,
2013-04-01 08:40:00,72.8,68.0,30.05,WSW,253,3.1,3.1,84,0.00,,,0.00,TxWx,2013-04-01 12:40:00,
2013-04-01 08:41:00,72.8,68.0,30.05,WSW,253,3.7,3.7,84,0.00,,,0.00,TxWx,2013-04-01 12:41:00,
2013-04-01 08:43:00,72.8,68.0,30.05,WSW,253,2.5,3.1,84,0.00,,,0.00,TxWx,2013-04-01 12:43:00,
2013-04-01 08:46:00,72.8,68.0,30.05,WSW,253,2.5,2.5,85,0.00,,,0.00,TxWx,2013-04-01 12:46:00,
2013-04-01 08:48:00,72.8,68.0,30.05,WSW,253,1.9,2.5,85,0.00,,,0.00,TxWx,2013-04-01 12:48:00,
2013-04-01 08:51:00,73.0,68.0,30.05,WSW,253,3.1,4.3,85,0.00,,,0.00,TxWx,2013-04-01 12:51:00,
2013-04-01 08:52:00,73.0,68.0,30.05,WSW,253,3.1,3.1,85,0.00,,,0.00,TxWx,2013-04-01 12:52:00,
2013-04-01 08:53:00,73.2,68.0,30.05,SW,231,2.5,2.5,85,0.00,,,0.00,TxWx,2013-04-01 12:53:00,
2013-04-01 08:54:00,73.3,68.0,30.05,WSW,253,1.9,1.9,85,0.00,,,0.00,TxWx,2013-04-01 12:54:00,
2013-04-01 08:57:00,73.7,69.0,30.05,South,186,3.1,3.1,85,0.00,,,0.00,TxWx,2013-04-01 12:57:00,
2013-04-01 08:58:00,73.7,69.0,30.05,WNW,298,2.5,2.5,85,0.00,,,0.00,TxWx,2013-04-01 12:58:00,
2013-04-01 09:00:00,73.9,69.0,30.05,SW,231,1.2,1.9,85,0.00,,,0.00,TxWx,2013-04-01 13:00:00,
2013-04-01 09:01:00,74.0,69.0,30.05,WSW,253,1.9,2.5,85,0.00,,,0.00,TxWx,2013-04-01 13:01:00,
2013-04-01 09:03:00,74.3,69.0,30.05,SW,231,2.5,2.5,85,0.00,,,0.00,TxWx,2013-04-01 13:03:00,
2013-04-01 09:05:00,74.4,69.0,30.05,WSW,253,1.9,1.9,84,0.00,,,0.00,TxWx,2013-04-01 13:05:00,
2013-04-01 09:06:00,74.5,70.0,30.05,SSW,208,1.9,2.5,84,0.00,,,0.00,TxWx,2013-04-01 13:06:00,
2013-04-01 09:08:00,74.8,70.0,30.05,South,186,1.2,1.2,84,0.00,,,0.00,TxWx,2013-04-01 13:08:00,
2013-04-01 09:09:00,74.9,70.0,30.05,East,96,1.9,1.9,84,0.00,,,0.00,TxWx,2013-04-01 13:09:00,
2013-04-01 09:12:00,75.1,69.0,30.05,SSW,208,3.1,4.3,83,0.00,,,0.00,TxWx,2013-04-01 13:12:00,
2013-04-01 09:13:00,75.3,69.0,30.05,South,186,3.1,3.1,83,0.00,,,0.00,TxWx,2013-04-01 13:13:00,
2013-04-01 09:14:00,75.3,69.0,30.05,SSE,163,8.0,8.0,83,0.00,,,0.00,TxWx,2013-04-01 13:14:00,
2013-04-01 09:17:00,75.8,70.0,30.05,SW,231,5.6,5.6,82,0.00,,,0.00,TxWx,2013-04-01 13:17:00,
2013-04-01 09:19:00,75.9,70.0,30.06,South,186,5.6,8.0,82,0.00,,,0.00,TxWx,2013-04-01 13:19:00,
2013-04-01 09:23:00,76.2,69.0,30.05,SSE,163,5.6,5.6,80,0.00,,,0.00,TxWx,2013-04-01 13:23:00,
2013-04-01 09:24:00,76.3,69.0,30.05,SSE,163,3.7,4.3,79,0.00,,,0.00,TxWx,2013-04-01 13:24:00,
2013-04-01 09:25:00,76.3,69.0,30.05,South,186,4.3,4.3,79,0.00,,,0.00,TxWx,2013-04-01 13:25:00,
2013-04-01 09:27:00,76.5,69.0,30.05,SE,141,6.2,7.4,79,0.00,,,0.00,TxWx,2013-04-01 13:27:00,
2013-04-01 09:28:00,76.4,69.0,30.05,SSW,208,7.4,9.9,78,0.00,,,0.00,TxWx,2013-04-01 13:28:00,
2013-04-01 09:29:00,76.5,70.0,30.05,SSE,163,3.7,4.3,78,0.00,,,0.00,TxWx,2013-04-01 13:29:00,
2013-04-01 09:30:00,76.6,70.0,30.05,East,96,5.0,5.0,78,0.00,,,0.00,TxWx,2013-04-01 13:30:00,
2013-04-01 09:34:00,76.9,70.0,30.05,South,186,6.2,6.2,78,0.00,,,0.00,TxWx,2013-04-01 13:34:00,
2013-04-01 09:36:00,76.7,69.0,30.05,ESE,118,4.3,4.3,78,0.00,,,0.00,TxWx,2013-04-01 13:36:00,
2013-04-01 09:37:00,76.7,69.0,30.05,SE,141,5.6,6.8,78,0.00,,,0.00,TxWx,2013-04-01 13:37:00,
2013-04-01 09:40:00,76.5,69.0,30.05,NNW,343,5.0,8.0,78,0.00,,,0.00,TxWx,2013-04-01 13:40:00,
2013-04-01 09:41:00,76.5,69.0,30.05,SSE,163,9.9,11.8,79,0.00,,,0.00,TxWx,2013-04-01 13:41:00,
2013-04-01 09:42:00,76.5,69.0,30.05,SE,141,6.8,7.4,79,0.00,,,0.00,TxWx,2013-04-01 13:42:00,
2013-04-01 09:46:00,76.4,69.0,30.05,SE,141,9.9,11.8,79,0.00,,,0.00,TxWx,2013-04-01 13:46:00,
2013-04-01 09:47:00,76.5,69.0,30.05,SSW,208,5.0,5.6,79,0.00,,,0.00,TxWx,2013-04-01 13:47:00,
2013-04-01 09:48:00,76.5,70.0,30.05,SSW,208,9.3,9.3,79,0.00,,,0.00,TxWx,2013-04-01 13:48:00,
2013-04-01 09:52:00,76.4,69.0,30.05,SSW,208,11.8,12.4,79,0.00,,,0.00,TxWx,2013-04-01 13:52:00,
2013-04-01 09:53:00,76.6,70.0,30.05,SE,141,7.4,8.0,79,0.00,,,0.00,TxWx,2013-04-01 13:53:00,
2013-04-01 09:57:00,76.7,70.0,30.05,SE,141,9.3,11.8,79,0.00,,,0.00,TxWx,2013-04-01 13:57:00,
2013-04-01 09:58:00,76.7,70.0,30.05,South,186,13.0,13.0,79,0.00,,,0.00,TxWx,2013-04-01 13:58:00,
2013-04-01 10:01:00,76.4,69.0,30.05,South,186,5.6,6.2,78,0.00,,,0.00,TxWx,2013-04-01 14:01:00,
2013-04-01 10:02:00,76.5,70.0,30.05,SSE,163,8.7,9.9,79,0.00,,,0.00,TxWx,2013-04-01 14:02:00,
2013-04-01 10:04:00,76.4,69.0,30.04,South,186,6.8,9.3,79,0.00,,,0.00,TxWx,2013-04-01 14:04:00,
2013-04-01 10:06:00,76.3,69.0,30.05,South,186,6.8,9.3,79,0.00,,,0.00,TxWx,2013-04-01 14:06:00,
2013-04-01 10:07:00,76.2,69.0,30.05,South,186,4.3,5.6,79,0.00,,,0.00,TxWx,2013-04-01 14:07:00,
2013-04-01 10:09:00,76.5,69.0,30.05,SE,141,8.0,8.0,80,0.00,,,0.00,TxWx,2013-04-01 14:09:00,
2013-04-01 10:12:00,76.4,69.0,30.05,South,186,13.0,13.0,80,0.00,,,0.00,TxWx,2013-04-01 14:12:00,
2013-04-01 10:14:00,76.3,69.0,30.05,SSW,208,3.7,5.0,80,0.00,,,0.00,TxWx,2013-04-01 14:14:00,
2013-04-01 10:15:00,76.5,70.0,30.05,ESE,118,1.9,1.9,80,0.00,,,0.00,TxWx,2013-04-01 14:15:00,
2013-04-01 10:16:00,76.6,70.0,30.05,South,186,3.7,4.3,80,0.00,,,0.00,TxWx,2013-04-01 14:16:00,
2013-04-01 10:18:00,76.7,70.0,30.05,SSW,208,4.3,5.0,80,0.00,,,0.00,TxWx,2013-04-01 14:18:00,
2013-04-01 10:21:00,76.6,70.0,30.05,SE,141,5.0,5.0,80,0.00,,,0.00,TxWx,2013-04-01 14:21:00,
2013-04-01 10:22:00,76.5,70.0,30.05,South,186,7.4,7.4,80,0.00,,,0.00,TxWx,2013-04-01 14:22:00,
2013-04-01 10:23:00,76.4,69.0,30.05,SE,141,7.4,8.0,80,0.00,,,0.00,TxWx,2013-04-01 14:23:00,
2013-04-01 10:26:00,76.1,69.0,30.05,SSE,163,11.1,11.8,80,0.00,,,0.00,TxWx,2013-04-01 14:26:00,
2013-04-01 10:28:00,76.1,70.0,30.05,ESE,118,5.6,6.2,81,0.00,,,0.00,TxWx,2013-04-01 14:28:00,
2013-04-01 10:30:00,76.2,70.0,30.05,SSW,208,6.2,6.2,81,0.00,,,0.00,TxWx,2013-04-01 14:30:00,
2013-04-01 10:31:00,76.1,70.0,30.05,South,186,8.7,8.7,81,0.00,,,0.00,TxWx,2013-04-01 14:31:00,
2013-04-01 10:34:00,75.9,70.0,30.05,SSE,163,8.7,8.7,81,0.00,,,0.00,TxWx,2013-04-01 14:34:00,
2013-04-01 10:36:00,75.8,70.0,30.04,South,186,8.7,13.0,81,0.00,,,0.00,TxWx,2013-04-01 14:36:00,
2013-04-01 10:39:00,76.3,70.0,30.04,SSW,208,9.3,9.3,81,0.00,,,0.00,TxWx,2013-04-01 14:39:00,
2013-04-01 10:40:00,76.3,70.0,30.04,SSW,208,8.0,8.0,81,0.00,,,0.00,TxWx,2013-04-01 14:40:00,
2013-04-01 10:42:00,76.5,71.0,30.04,South,186,8.0,13.0,81,0.00,,,0.00,TxWx,2013-04-01 14:42:00,
2013-04-01 10:45:00,76.2,69.0,30.05,SE,141,8.7,9.3,80,0.00,,,0.00,TxWx,2013-04-01 14:45:00,
2013-04-01 10:46:00,76.1,69.0,30.05,South,186,6.8,8.7,80,0.00,,,0.00,TxWx,2013-04-01 14:46:00,
2013-04-01 10:47:00,76.1,69.0,30.05,SSE,163,7.4,7.4,80,0.00,,,0.00,TxWx,2013-04-01 14:47:00,
2013-04-01 10:50:00,76.3,70.0,30.05,SSW,208,2.5,3.7,81,0.00,,,0.00,TxWx,2013-04-01 14:50:00,
2013-04-01 10:51:00,76.5,70.0,30.04,SSW,208,8.7,8.7,81,0.00,,,0.00,TxWx,2013-04-01 14:51:00,
2013-04-01 10:52:00,76.7,71.0,30.05,South,186,5.6,8.7,81,0.00,,,0.00,TxWx,2013-04-01 14:52:00,
2013-04-01 10:55:00,76.1,70.0,30.04,SE,141,9.3,9.3,81,0.00,,,0.00,TxWx,2013-04-01 14:55:00,
2013-04-01 10:57:00,76.0,70.0,30.04,SSE,163,9.9,9.9,81,0.00,,,0.00,TxWx,2013-04-01 14:57:00,
2013-04-01 11:00:00,76.1,70.0,30.04,SE,141,8.7,9.9,82,0.00,,,0.00,TxWx,2013-04-01 15:00:00,
2013-04-01 11:01:00,76.1,70.0,30.04,South,186,8.7,8.7,82,0.00,,,0.00,TxWx,2013-04-01 15:01:00,
2013-04-01 11:03:00,76.3,70.0,30.05,SSE,163,5.0,5.0,82,0.00,,,0.00,TxWx,2013-04-01 15:03:00,
2013-04-01 11:05:00,76.4,70.0,30.05,WSW,253,2.5,2.5,82,0.00,,,0.00,TxWx,2013-04-01 15:05:00,
2013-04-01 11:06:00,76.4,70.0,30.05,NE,51,3.1,3.1,81,0.00,,,0.00,TxWx,2013-04-01 15:06:00,
2013-04-01 11:08:00,76.5,71.0,30.05,SSW,208,6.2,8.7,81,0.00,,,0.00,TxWx,2013-04-01 15:08:00,
2013-04-01 11:09:00,76.7,71.0,30.05,ESE,118,5.6,7.4,81,0.00,,,0.00,TxWx,2013-04-01 15:09:00,
2013-04-01 11:11:00,76.7,70.0,30.05,West,276,2.5,2.5,78,0.00,,,0.00,TxWx,2013-04-01 15:11:00,
2013-04-01 11:12:00,76.7,69.0,30.05,WSW,253,4.3,5.0,78,0.00,,,0.00,TxWx,2013-04-01 15:12:00,
2013-04-01 11:13:00,77.2,69.0,30.05,WSW,253,6.2,7.4,76,0.00,,,0.00,TxWx,2013-04-01 15:13:00,
2013-04-01 11:14:00,77.4,69.0,30.05,SE,141,1.2,1.9,76,0.00,,,0.00,TxWx,2013-04-01 15:14:00,
2013-04-01 11:18:00,78.2,69.0,30.05,SSW,208,3.1,4.3,75,0.00,,,0.00,TxWx,2013-04-01 15:18:00,
2013-04-01 11:19:00,78.0,69.0,30.05,West,276,1.9,1.9,74,0.00,,,0.00,TxWx,2013-04-01 15:19:00,
2013-04-01 11:20:00,78.0,68.0,30.05,WSW,253,3.7,4.3,72,0.00,,,0.00,TxWx,2013-04-01 15:20:00,
2013-04-01 11:24:00,77.6,64.0,30.05,SSW,208,3.1,4.3,62,0.00,,,0.00,TxWx,2013-04-01 15:24:00,
2013-04-01 11:26:00,78.1,64.0,30.05,WSW,253,5.6,5.6,62,0.00,,,0.00,TxWx,2013-04-01 15:26:00,
2013-04-01 11:29:00,78.8,63.0,30.05,WSW,253,7.4,8.0,58,0.00,,,0.00,TxWx,2013-04-01 15:29:00,
2013-04-01 11:32:00,79.4,62.0,30.05,WSW,253,7.4,8.0,57,0.00,,,0.00,TxWx,2013-04-01 15:32:00,
2013-04-01 11:35:00,79.6,62.0,30.05,West,276,10.5,11.8,54,0.00,,,0.00,TxWx,2013-04-01 15:35:00,
2013-04-01 11:37:00,79.4,61.0,30.04,WSW,253,10.5,11.8,55,0.00,,,0.00,TxWx,2013-04-01 15:37:00,
2013-04-01 11:39:00,79.4,62.0,30.04,WSW,253,6.2,6.2,56,0.00,,,0.00,TxWx,2013-04-01 15:39:00,
2013-04-01 11:40:00,79.8,62.0,30.04,WSW,253,9.3,11.1,55,0.00,,,0.00,TxWx,2013-04-01 15:40:00,
2013-04-01 11:42:00,79.8,62.0,30.05,WSW,253,11.8,11.8,55,0.00,,,0.00,TxWx,2013-04-01 15:42:00,
2013-04-01 11:46:00,79.7,62.0,30.04,West,276,12.4,14.2,54,0.00,,,0.00,TxWx,2013-04-01 15:46:00,
2013-04-01 11:48:00,79.4,60.0,30.04,West,276,13.6,13.6,53,0.00,,,0.00,TxWx,2013-04-01 15:48:00,
2013-04-01 11:53:00,80.1,62.0,30.05,West,276,6.8,7.4,55,0.00,,,0.00,TxWx,2013-04-01 15:53:00,
2013-04-01 11:56:00,79.7,62.0,30.04,WSW,253,7.4,8.7,55,0.00,,,0.00,TxWx,2013-04-01 15:56:00,
2013-04-01 11:58:00,79.5,63.0,30.04,West,276,8.7,9.9,56,0.00,,,0.00,TxWx,2013-04-01 15:58:00,
2013-04-01 11:59:00,79.4,62.0,30.05,WSW,253,10.5,11.8,56,0.00,,,0.00,TxWx,2013-04-01 15:59:00,
2013-04-01 12:04:00,79.8,63.0,30.04,West,276,8.7,9.9,56,0.00,,,0.00,TxWx,2013-04-01 16:04:00,
2013-04-01 12:05:00,79.5,61.0,30.04,WSW,253,12.4,12.4,55,0.00,,,0.00,TxWx,2013-04-01 16:05:00,
2013-04-01 12:07:00,79.6,62.0,30.04,SW,231,5.6,6.8,55,0.00,,,0.00,TxWx,2013-04-01 16:07:00,
2013-04-01 12:08:00,79.8,62.0,30.04,SW,231,8.7,9.9,55,0.00,,,0.00,TxWx,2013-04-01 16:08:00,
2013-04-01 12:09:00,79.8,62.0,30.04,SSW,208,7.4,8.7,55,0.00,,,0.00,TxWx,2013-04-01 16:09:00,
2013-04-01 12:11:00,80.0,61.0,30.04,WSW,253,8.7,9.9,52,0.00,,,0.00,TxWx,2013-04-01 16:11:00,
2013-04-01 12:13:00,80.5,62.0,30.04,WSW,253,6.8,6.8,54,0.00,,,0.00,TxWx,2013-04-01 16:13:00,
2013-04-01 12:14:00,80.2,62.0,30.04,WSW,253,8.7,8.7,54,0.00,,,0.00,TxWx,2013-04-01 16:14:00,
2013-04-01 12:16:00,80.3,60.0,30.04,WNW,298,9.9,9.9,52,0.00,,,0.00,TxWx,2013-04-01 16:16:00,
2013-04-01 12:17:00,80.1,60.0,30.03,WSW,253,11.1,12.4,51,0.00,,,0.00,TxWx,2013-04-01 16:17:00,
2013-04-01 12:19:00,80.6,61.0,30.03,NW,321,4.3,5.0,52,0.00,,,0.00,TxWx,2013-04-01 16:19:00,
2013-04-01 12:20:00,80.7,61.0,30.03,SSW,208,2.5,3.1,52,0.00,,,0.00,TxWx,2013-04-01 16:20:00,
2013-04-01 12:21:00,80.9,62.0,30.03,SSW,208,6.2,6.2,53,0.00,,,0.00,TxWx,2013-04-01 16:21:00,
2013-04-01 12:23:00,81.3,62.0,30.03,WSW,253,5.6,5.6,53,0.00,,,0.00,TxWx,2013-04-01 16:23:00,
2013-04-01 12:24:00,80.9,61.0,30.03,West,276,8.7,8.7,51,0.00,,,0.00,TxWx,2013-04-01 16:24:00,
2013-04-01 12:25:00,80.8,61.0,30.03,WSW,253,10.5,11.8,50,0.00,,,0.00,TxWx,2013-04-01 16:25:00,
2013-04-01 12:27:00,80.8,61.0,30.03,SW,231,7.4,9.9,50,0.00,,,0.00,TxWx,2013-04-01 16:27:00,
2013-04-01 12:29:00,81.5,62.0,30.03,South,186,3.7,3.7,53,0.00,,,0.00,TxWx,2013-04-01 16:29:00,
2013-04-01 12:30:00,81.3,62.0,30.03,SW,231,6.2,6.2,53,0.00,,,0.00,TxWx,2013-04-01 16:30:00,
2013-04-01 12:31:00,81.0,61.0,30.03,South,186,7.4,8.7,51,0.00,,,0.00,TxWx,2013-04-01 16:31:00,
2013-04-01 12:32:00,81.0,61.0,30.03,SW,231,5.0,5.6,52,0.00,,,0.00,TxWx,2013-04-01 16:32:00,
2013-04-01 12:34:00,80.4,59.0,30.03,West,276,10.5,10.5,49,0.00,,,0.00,TxWx,2013-04-01 16:34:00,
2013-04-01 12:35:00,80.2,60.0,30.03,WSW,253,10.5,10.5,50,0.00,,,0.00,TxWx,2013-04-01 16:35:00,
2013-04-01 12:40:00,80.0,59.0,30.03,West,276,14.9,16.1,49,0.00,,,0.00,TxWx,2013-04-01 16:40:00,
2013-04-01 12:42:00,80.3,61.0,30.03,West,276,8.0,8.0,53,0.00,,,0.00,TxWx,2013-04-01 16:42:00,
2013-04-01 12:43:00,80.4,60.0,30.03,WSW,253,14.2,14.2,51,0.00,,,0.00,TxWx,2013-04-01 16:43:00,
2013-04-01 12:46:00,80.3,59.0,30.03,WSW,253,16.7,16.7,50,0.00,,,0.00,TxWx,2013-04-01 16:46:00,
2013-04-01 12:47:00,80.4,59.0,30.03,WSW,253,13.0,13.0,49,0.00,,,0.00,TxWx,2013-04-01 16:47:00,
2013-04-01 12:51:00,80.4,60.0,30.02,West,276,12.4,13.0,50,0.00,,,0.00,TxWx,2013-04-01 16:51:00,
2013-04-01 12:52:00,80.7,62.0,30.02,West,276,11.8,11.8,52,0.00,,,0.00,TxWx,2013-04-01 16:52:00,
2013-04-01 12:53:00,80.8,61.0,30.02,WNW,298,6.2,6.8,52,0.00,,,0.00,TxWx,2013-04-01 16:53:00,
2013-04-01 12:58:00,80.3,61.0,30.02,WNW,298,7.4,7.4,53,0.00,,,0.00,TxWx,2013-04-01 16:58:00,
2013-04-01 12:59:00,80.4,62.0,30.02,West,276,9.9,11.1,54,0.00,,,0.00,TxWx,2013-04-01 16:59:00,
2013-04-01 13:00:00,80.4,62.0,30.02,WSW,253,10.5,10.5,55,0.00,,,0.00,TxWx,2013-04-01 17:00:00,
2013-04-01 13:04:00,80.8,61.0,30.02,WSW,253,11.1,13.0,51,0.00,,,0.00,TxWx,2013-04-01 17:04:00,
2013-04-01 13:05:00,81.1,62.0,30.02,West,276,10.5,10.5,53,0.00,,,0.00,TxWx,2013-04-01 17:05:00,
2013-04-01 13:06:00,81.2,61.0,30.02,WSW,253,6.2,6.2,51,0.00,,,0.00,TxWx,2013-04-01 17:06:00,
2013-04-01 13:10:00,81.2,62.0,30.02,WSW,253,7.4,7.4,53,0.00,,,0.00,TxWx,2013-04-01 17:10:00,
2013-04-01 13:12:00,81.6,62.0,30.01,West,276,5.6,6.2,52,0.00,,,0.00,TxWx,2013-04-01 17:12:00,
2013-04-01 13:14:00,81.0,62.0,30.01,WNW,298,8.7,8.7,54,0.00,,,0.00,TxWx,2013-04-01 17:14:00,
2013-04-01 13:17:00,81.1,62.0,30.01,WSW,253,13.0,13.0,52,0.00,,,0.00,TxWx,2013-04-01 17:17:00,
2013-04-01 13:21:00,81.2,62.0,30.01,West,276,13.0,15.5,53,0.00,,,0.00,TxWx,2013-04-01 17:21:00,
2013-04-01 13:22:00,81.4,63.0,30.01,WNW,298,13.6,13.6,54,0.00,,,0.00,TxWx,2013-04-01 17:22:00,
2013-04-01 13:23:00,80.8,62.0,30.01,West,276,13.0,14.2,53,0.00,,,0.00,TxWx,2013-04-01 17:23:00,
2013-04-01 13:27:00,80.7,62.0,30.01,WSW,253,11.8,11.8,52,0.00,,,0.00,TxWx,2013-04-01 17:27:00,
2013-04-01 13:29:00,80.9,62.0,30.01,WSW,253,16.1,17.3,53,0.00,,,0.00,TxWx,2013-04-01 17:29:00,
2013-04-01 13:31:00,80.7,62.0,30.01,West,276,13.0,13.0,53,0.00,,,0.00,TxWx,2013-04-01 17:31:00,
2013-04-01 13:32:00,81.1,62.0,30.01,West,276,15.5,17.9,52,0.00,,,0.00,TxWx,2013-04-01 17:32:00,
2013-04-01 13:35:00,80.7,62.0,30.01,West,276,17.9,17.9,52,0.00,,,0.00,TxWx,2013-04-01 17:35:00,
2013-04-01 13:36:00,80.9,62.0,30.01,WSW,253,13.0,13.0,52,0.00,,,0.00,TxWx,2013-04-01 17:36:00,
2013-04-01 13:37:00,81.0,63.0,30.01,WNW,298,9.9,9.9,54,0.00,,,0.00,TxWx,2013-04-01 17:37:00,
2013-04-01 13:38:00,80.9,62.0,30.01,West,276,14.2,15.5,53,0.00,,,0.00,TxWx,2013-04-01 17:38:00,
2013-04-01 13:41:00,80.9,60.0,30.01,WNW,298,16.7,16.7,50,0.00,,,0.00,TxWx,2013-04-01 17:41:00,
2013-04-01 13:42:00,81.1,60.0,30.01,West,276,13.0,13.0,50,0.00,,,0.00,TxWx,2013-04-01 17:42:00,
2013-04-01 13:43:00,81.2,61.0,30.01,West,276,12.4,13.6,50,0.00,,,0.00,TxWx,2013-04-01 17:43:00,
2013-04-01 13:47:00,82.0,60.0,30.00,WSW,253,9.3,9.9,48,0.00,,,0.00,TxWx,2013-04-01 17:47:00,
2013-04-01 13:48:00,82.3,61.0,30.00,West,276,9.9,9.9,50,0.00,,,0.00,TxWx,2013-04-01 17:48:00,
2013-04-01 13:50:00,81.5,61.0,30.00,West,276,16.1,16.7,49,0.00,,,0.00,TxWx,2013-04-01 17:50:00,
2013-04-01 13:53:00,81.4,59.0,30.00,WSW,253,11.8,12.4,48,0.00,,,0.00,TxWx,2013-04-01 17:53:00,
2013-04-01 13:54:00,81.6,60.0,30.00,WSW,253,17.3,17.3,48,0.00,,,0.00,TxWx,2013-04-01 17:54:00,
2013-04-01 13:55:00,81.6,61.0,30.00,WSW,253,11.8,13.0,49,0.00,,,0.00,TxWx,2013-04-01 17:55:00,
2013-04-01 13:58:00,82.0,60.0,30.00,WSW,253,13.0,13.0,48,0.00,,,0.00,TxWx,2013-04-01 17:58:00,
2013-04-01 13:59:00,81.8,62.0,30.00,WSW,253,13.0,13.6,51,0.00,,,0.00,TxWx,2013-04-01 17:59:00,
2013-04-01 14:00:00,81.7,61.0,30.00,WSW,253,8.7,10.5,49,0.00,,,0.00,TxWx,2013-04-01 18:00:00,
2013-04-01 14:02:00,81.8,61.0,29.99,WNW,298,10.5,11.1,49,0.00,,,0.00,TxWx,2013-04-01 18:02:00,
2013-04-01 14:04:00,81.5,60.0,29.99,West,276,10.5,10.5,48,0.00,,,0.00,TxWx,2013-04-01 18:04:00,
2013-04-01 14:05:00,81.5,59.0,29.99,WSW,253,9.3,11.8,48,0.00,,,0.00,TxWx,2013-04-01 18:05:00,
2013-04-01 14:07:00,81.6,61.0,29.99,West,276,15.5,15.5,50,0.00,,,0.00,TxWx,2013-04-01 18:07:00,
2013-04-01 14:08:00,81.4,61.0,29.99,West,276,13.0,13.0,52,0.00,,,0.00,TxWx,2013-04-01 18:08:00,
2013-04-01 14:11:00,81.3,61.0,29.99,West,276,13.6,13.6,50,0.00,,,0.00,TxWx,2013-04-01 18:11:00,
2013-04-01 14:14:00,81.3,61.0,29.98,WNW,298,8.7,8.7,50,0.00,,,0.00,TxWx,2013-04-01 18:14:00,
2013-04-01 14:15:00,81.4,61.0,29.98,West,276,11.1,12.4,52,0.00,,,0.00,TxWx,2013-04-01 18:15:00,
2013-04-01 14:16:00,81.4,61.0,29.98,WNW,298,11.1,11.8,52,0.00,,,0.00,TxWx,2013-04-01 18:16:00,
2013-04-01 14:21:00,81.8,62.0,29.98,WSW,253,10.5,10.5,52,0.00,,,0.00,TxWx,2013-04-01 18:21:00,
2013-04-01 14:22:00,81.6,63.0,29.98,West,276,6.8,8.7,53,0.00,,,0.00,TxWx,2013-04-01 18:22:00,
2013-04-01 14:24:00,82.0,62.0,29.98,SSW,208,3.7,3.7,52,0.00,,,0.00,TxWx,2013-04-01 18:24:00,
2013-04-01 14:26:00,81.6,63.0,29.98,SW,231,4.3,4.3,52,0.00,,,0.00,TxWx,2013-04-01 18:26:00,
2013-04-01 14:27:00,81.7,63.0,29.98,West,276,8.0,8.0,52,0.00,,,0.00,TxWx,2013-04-01 18:27:00,
2013-04-01 14:28:00,81.7,62.0,29.98,WSW,253,5.6,6.2,52,0.00,,,0.00,TxWx,2013-04-01 18:28:00,
2013-04-01 14:32:00,82.3,63.0,29.98,SW,231,7.4,7.4,52,0.00,,,0.00,TxWx,2013-04-01 18:32:00,
2013-04-01 14:33:00,82.0,62.0,29.98,West,276,10.5,10.5,52,0.00,,,0.00,TxWx,2013-04-01 18:33:00,
2013-04-01 14:35:00,81.9,62.0,29.98,WSW,253,5.6,5.6,51,0.00,,,0.00,TxWx,2013-04-01 18:35:00,
2013-04-01 14:38:00,81.6,62.0,29.98,WSW,253,9.3,11.1,52,0.00,,,0.00,TxWx,2013-04-01 18:38:00,
2013-04-01 14:39:00,81.5,62.0,29.98,West,276,13.6,13.6,52,0.00,,,0.00,TxWx,2013-04-01 18:39:00,
2013-04-01 14:43:00,81.8,63.0,29.98,WSW,253,11.1,11.1,53,0.00,,,0.00,TxWx,2013-04-01 18:43:00,
2013-04-01 14:44:00,81.6,63.0,29.98,West,276,11.1,11.1,52,0.00,,,0.00,TxWx,2013-04-01 18:44:00,
2013-04-01 14:45:00,81.4,62.0,29.98,WSW,253,14.9,14.9,52,0.00,,,0.00,TxWx,2013-04-01 18:45:00,
2013-04-01 14:46:00,81.3,62.0,29.98,WSW,253,13.0,14.9,52,0.00,,,0.00,TxWx,2013-04-01 18:46:00,
2013-04-01 14:49:00,81.3,62.0,29.97,West,276,7.4,8.0,53,0.00,,,0.00,TxWx,2013-04-01 18:49:00,
2013-04-01 14:50:00,81.4,62.0,29.98,SW,231,6.8,6.8,54,0.00,,,0.00,TxWx,2013-04-01 18:50:00,
2013-04-01 14:51:00,81.6,63.0,29.98,West,276,5.0,5.6,53,0.00,,,0.00,TxWx,2013-04-01 18:51:00,
2013-04-01 14:53:00,81.7,63.0,29.97,SW,231,4.3,4.3,54,0.00,,,0.00,TxWx,2013-04-01 18:53:00,
2013-04-01 14:55:00,81.7,64.0,29.97,WSW,253,8.7,8.7,54,0.00,,,0.00,TxWx,2013-04-01 18:55:00,
2013-04-01 14:56:00,82.0,64.0,29.97,WSW,253,4.3,5.0,55,0.00,,,0.00,TxWx,2013-04-01 18:56:00,
2013-04-01 14:57:00,82.1,60.0,29.97,SW,231,8.0,8.7,48,0.00,,,0.00,TxWx,2013-04-01 18:57:00,
2013-04-01 14:58:00,82.4,60.0,29.97,WNW,298,6.8,6.8,47,0.00,,,0.00,TxWx,2013-04-01 18:58:00,
2013-04-01 15:00:00,82.5,62.0,29.97,WSW,253,6.8,7.4,51,0.00,,,0.00,TxWx,2013-04-01 19:00:00,
2013-04-01 15:01:00,82.4,62.0,29.97,WSW,253,14.2,14.2,51,0.00,,,0.00,TxWx,2013-04-01 19:01:00,
2013-04-01 15:03:00,81.9,61.0,29.97,WSW,253,7.4,7.4,50,0.00,,,0.00,TxWx,2013-04-01 19:03:00,
2013-04-01 15:06:00,82.0,61.0,29.97,West,276,9.9,9.9,50,0.00,,,0.00,TxWx,2013-04-01 19:06:00,
2013-04-01 15:07:00,82.4,62.0,29.97,WNW,298,9.9,9.9,51,0.00,,,0.00,TxWx,2013-04-01 19:07:00,
2013-04-01 15:09:00,82.8,62.0,29.97,WSW,253,8.7,9.9,49,0.00,,,0.00,TxWx,2013-04-01 19:09:00,
2013-04-01 15:11:00,82.5,60.0,29.96,WSW,253,7.4,7.4,48,0.00,,,0.00,TxWx,2013-04-01 19:11:00,
2013-04-01 15:12:00,82.5,61.0,29.96,WSW,253,9.3,9.3,48,0.00,,,0.00,TxWx,2013-04-01 19:12:00,
2013-04-01 15:13:00,82.5,61.0,29.96,WSW,253,10.5,10.5,48,0.00,,,0.00,TxWx,2013-04-01 19:13:00,
2013-04-01 15:14:00,82.4,59.0,29.96,WSW,253,7.4,8.7,47,0.00,,,0.00,TxWx,2013-04-01 19:14:00,
2013-04-01 15:18:00,82.5,58.0,29.96,West,276,16.1,17.3,45,0.00,,,0.00,TxWx,2013-04-01 19:18:00,
2013-04-01 15:19:00,82.7,60.0,29.96,WSW,253,12.4,13.6,46,0.00,,,0.00,TxWx,2013-04-01 19:19:00,
2013-04-01 15:20:00,82.9,59.0,29.96,West,276,14.2,14.2,45,0.00,,,0.00,TxWx,2013-04-01 19:20:00,
2013-04-01 15:21:00,82.9,59.0,29.96,WNW,298,12.4,13.0,44,0.00,,,0.00,TxWx,2013-04-01 19:21:00,
2013-04-01 15:23:00,82.9,59.0,29.96,West,276,16.1,16.1,44,0.00,,,0.02,TxWx,2013-04-01 19:23:00,
2013-04-01 15:24:00,82.8,59.0,29.96,WSW,253,19.2,19.8,45,0.00,,,0.02,TxWx,2013-04-01 19:24:00,
2013-04-01 15:26:00,82.9,59.0,29.96,WNW,298,13.6,13.6,45,0.00,,,0.02,TxWx,2013-04-01 19:26:00,
2013-04-01 15:28:00,83.1,59.0,29.96,West,276,12.4,12.4,44,0.12,,,0.02,TxWx,2013-04-01 19:28:00,
2013-04-01 15:29:00,83.1,59.0,29.96,WSW,253,9.3,9.3,44,0.12,,,0.02,TxWx,2013-04-01 19:29:00,
2013-04-01 15:31:00,83.3,59.0,29.96,West,276,13.0,13.0,45,0.12,,,0.02,TxWx,2013-04-01 19:31:00,
2013-04-01 15:32:00,83.3,59.0,29.96,West,276,9.9,9.9,45,0.12,,,0.02,TxWx,2013-04-01 19:32:00,
2013-04-01 15:34:00,83.4,58.0,29.96,WSW,253,7.4,9.9,44,0.12,,,0.02,TxWx,2013-04-01 19:34:00,
2013-04-01 15:35:00,83.6,59.0,29.96,WSW,253,13.0,14.9,44,0.12,,,0.02,TxWx,2013-04-01 19:35:00,
2013-04-01 15:37:00,83.2,59.0,29.96,WNW,298,11.8,11.8,45,0.12,,,0.02,TxWx,2013-04-01 19:37:00,
2013-04-01 15:39:00,83.1,57.0,29.96,WNW,298,11.8,14.9,42,0.00,,,0.02,TxWx,2013-04-01 19:39:00,
2013-04-01 15:40:00,83.4,57.0,29.96,West,276,16.7,16.7,42,0.00,,,0.02,TxWx,2013-04-01 19:40:00,
2013-04-01 15:44:00,83.5,57.0,29.96,West,276,13.6,14.9,41,0.00,,,0.02,TxWx,2013-04-01 19:44:00,
2013-04-01 15:45:00,83.5,58.0,29.96,West,276,16.1,16.7,41,0.00,,,0.02,TxWx,2013-04-01 19:45:00,
2013-04-01 15:46:00,83.2,57.0,29.96,West,276,16.1,17.3,41,0.00,,,0.02,TxWx,2013-04-01 19:46:00,
2013-04-01 15:47:00,83.2,57.0,29.96,West,276,13.6,13.6,41,0.00,,,0.02,TxWx,2013-04-01 19:47:00,
2013-04-01 15:51:00,83.6,58.0,29.95,West,276,12.4,13.6,42,0.00,,,0.02,TxWx,2013-04-01 19:51:00,
2013-04-01 15:52:00,83.1,58.0,29.95,West,276,11.8,12.4,43,0.00,,,0.02,TxWx,2013-04-01 19:52:00,
2013-04-01 15:54:00,83.2,58.0,29.95,West,276,8.7,11.8,43,0.00,,,0.02,TxWx,2013-04-01 19:54:00,
2013-04-01 15:56:00,83.4,57.0,29.96,West,276,9.3,9.3,42,0.00,,,0.02,TxWx,2013-04-01 19:56:00,
2013-04-01 15:57:00,83.4,58.0,29.96,West,276,9.3,9.3,43,0.00,,,0.02,TxWx,2013-04-01 19:57:00,
2013-04-01 15:59:00,83.3,58.0,29.95,West,276,14.2,14.2,43,0.00,,,0.02,TxWx,2013-04-01 19:59:00,
2013-04-01 16:02:00,83.1,58.0,29.96,WNW,298,11.8,11.8,43,0.00,,,0.02,TxWx,2013-04-01 20:02:00,
2013-04-01 16:03:00,83.1,58.0,29.96,West,276,11.8,11.8,43,0.00,,,0.02,TxWx,2013-04-01 20:03:00,
2013-04-01 16:04:00,83.3,58.0,29.97,South,186,3.7,4.3,44,0.00,,,0.02,TxWx,2013-04-01 20:04:00,
2013-04-01 16:08:00,77.8,64.0,29.96,SE,141,9.3,13.0,62,0.00,,,0.02,TxWx,2013-04-01 20:08:00,
2013-04-01 16:10:00,77.3,64.0,29.96,South,186,7.4,7.4,64,0.00,,,0.02,TxWx,2013-04-01 20:10:00,
2013-04-01 16:11:00,76.8,64.0,29.96,SE,141,5.0,5.6,65,0.00,,,0.02,TxWx,2013-04-01 20:11:00,
2013-04-01 16:14:00,76.6,65.0,29.95,SSW,208,3.1,3.7,67,0.00,,,0.02,TxWx,2013-04-01 20:14:00,
2013-04-01 16:16:00,75.9,64.0,29.95,South,186,5.6,6.2,67,0.00,,,0.02,TxWx,2013-04-01 20:16:00,
2013-04-01 16:17:00,75.9,64.0,29.95,SE,141,11.1,11.8,67,0.00,,,0.02,TxWx,2013-04-01 20:17:00,
2013-04-01 16:18:00,75.9,65.0,29.96,SSE,163,4.3,4.3,68,0.00,,,0.02,TxWx,2013-04-01 20:18:00,
2013-04-01 16:19:00,75.6,65.0,29.96,South,186,4.3,5.6,68,0.00,,,0.02,TxWx,2013-04-01 20:19:00,
2013-04-01 16:22:00,75.3,63.0,29.96,South,186,3.1,4.3,68,0.00,,,0.02,TxWx,2013-04-01 20:22:00,
2013-04-01 16:23:00,75.2,63.0,29.96,East,96,4.3,4.3,67,0.00,,,0.02,TxWx,2013-04-01 20:23:00,
2013-04-01 16:24:00,75.3,63.0,29.96,South,186,5.0,5.6,67,0.00,,,0.02,TxWx,2013-04-01 20:24:00,
2013-04-01 16:28:00,75.7,64.0,29.95,SE,141,8.0,9.9,68,0.00,,,0.02,TxWx,2013-04-01 20:28:00,
2013-04-01 16:30:00,75.5,65.0,29.95,South,186,17.3,17.3,69,0.00,,,0.02,TxWx,2013-04-01 20:30:00,
2013-04-01 16:31:00,75.7,65.0,29.95,South,186,9.9,9.9,70,0.00,,,0.02,TxWx,2013-04-01 20:31:00,
2013-04-01 16:34:00,75.7,66.0,29.95,SSE,163,9.9,9.9,71,0.00,,,0.02,TxWx,2013-04-01 20:34:00,
2013-04-01 16:36:00,76.1,66.0,29.95,SE,141,5.0,5.0,72,0.00,,,0.02,TxWx,2013-04-01 20:36:00,
2013-04-01 16:39:00,75.8,67.0,29.95,SSW,208,7.4,8.7,73,0.00,,,0.02,TxWx,2013-04-01 20:39:00,
2013-04-01 16:42:00,75.7,67.0,29.95,SE,141,6.2,6.2,75,0.00,,,0.02,TxWx,2013-04-01 20:42:00,
2013-04-01 16:45:00,75.6,67.0,29.95,South,186,6.8,7.4,75,0.00,,,0.02,TxWx,2013-04-01 20:45:00,
2013-04-01 16:47:00,75.2,67.0,29.94,SSW,208,16.1,16.1,75,0.00,,,0.02,TxWx,2013-04-01 20:47:00,
2013-04-01 16:50:00,75.0,66.0,29.95,SW,231,8.0,8.0,74,0.00,,,0.02,TxWx,2013-04-01 20:50:00,
2013-04-01 16:52:00,75.0,66.0,29.95,East,96,6.8,9.3,74,0.00,,,0.02,TxWx,2013-04-01 20:52:00,
2013-04-01 16:53:00,75.0,66.0,29.95,SSE,163,10.5,16.1,74,0.00,,,0.02,TxWx,2013-04-01 20:53:00,
2013-04-01 16:55:00,75.0,66.0,29.95,SSW,208,11.8,14.2,75,0.00,,,0.02,TxWx,2013-04-01 20:55:00,
2013-04-01 16:58:00,74.9,66.0,29.95,SE,141,9.9,9.9,75,0.00,,,0.02,TxWx,2013-04-01 20:58:00,
2013-04-01 17:01:00,75.0,66.0,29.95,SE,141,10.5,13.0,75,0.00,,,0.02,TxWx,2013-04-01 21:01:00,
2013-04-01 17:03:00,75.0,67.0,29.95,South,186,10.5,11.1,75,0.00,,,0.02,TxWx,2013-04-01 21:03:00,
2013-04-01 17:06:00,75.3,67.0,29.95,ESE,118,8.0,8.0,77,0.00,,,0.02,TxWx,2013-04-01 21:06:00,
2013-04-01 17:07:00,75.2,67.0,29.95,South,186,8.7,10.5,77,0.00,,,0.02,TxWx,2013-04-01 21:07:00,
2013-04-01 17:09:00,75.2,67.0,29.95,SSW,208,4.3,6.8,78,0.00,,,0.02,TxWx,2013-04-01 21:09:00,
2013-04-01 17:12:00,75.0,68.0,29.95,SSE,163,6.2,6.2,79,0.00,,,0.02,TxWx,2013-04-01 21:12:00,
2013-04-01 17:13:00,75.0,68.0,29.95,ESE,118,6.8,9.9,79,0.00,,,0.02,TxWx,2013-04-01 21:13:00,
2013-04-01 17:16:00,74.7,68.0,29.95,SW,231,9.9,11.1,79,0.00,,,0.02,TxWx,2013-04-01 21:16:00,
2013-04-01 17:18:00,74.8,68.0,29.95,SE,141,5.6,6.8,79,0.00,,,0.02,TxWx,2013-04-01 21:18:00,
2013-04-01 17:20:00,74.9,68.0,29.95,ESE,118,7.4,9.9,80,0.00,,,0.02,TxWx,2013-04-01 21:20:00,
2013-04-01 17:21:00,74.6,68.0,29.95,SSE,163,8.7,13.0,80,0.00,,,0.02,TxWx,2013-04-01 21:21:00,
2013-04-01 17:22:00,74.6,68.0,29.95,South,186,7.4,7.4,80,0.00,,,0.02,TxWx,2013-04-01 21:22:00,
2013-04-01 17:24:00,74.5,67.0,29.95,SSE,163,11.1,13.0,80,0.00,,,0.02,TxWx,2013-04-01 21:24:00,
2013-04-01 17:26:00,73.6,66.0,29.95,SE,141,11.1,11.8,78,0.00,,,0.02,TxWx,2013-04-01 21:26:00,
2013-04-01 17:28:00,73.7,66.0,29.95,SSW,208,7.4,11.1,77,0.00,,,0.02,TxWx,2013-04-01 21:28:00,
2013-04-01 17:31:00,74.0,66.0,29.95,ESE,118,7.4,9.9,77,0.00,,,0.02,TxWx,2013-04-01 21:31:00,
2013-04-01 17:32:00,74.1,66.0,29.95,SSW,208,4.3,5.0,77,0.00,,,0.02,TxWx,2013-04-01 21:32:00,
2013-04-01 17:34:00,73.9,66.0,29.95,WNW,298,8.0,8.0,76,0.00,,,0.02,TxWx,2013-04-01 21:34:00,
2013-04-01 17:36:00,73.6,65.0,29.95,South,186,11.1,13.6,73,0.00,,,0.02,TxWx,2013-04-01 21:36:00,
2013-04-01 17:38:00,73.8,64.0,29.95,SSE,163,9.9,12.4,70,0.00,,,0.02,TxWx,2013-04-01 21:38:00,
2013-04-01 17:40:00,74.2,63.0,29.95,South,186,6.8,6.8,69,0.00,,,0.02,TxWx,2013-04-01 21:40:00,
2013-04-01 17:42:00,74.4,63.0,29.95,ESE,118,6.8,6.8,69,0.00,,,0.02,TxWx,2013-04-01 21:42:00,
2013-04-01 17:44:00,74.7,64.0,29.95,SE,141,9.3,9.3,69,0.00,,,0.02,TxWx,2013-04-01 21:44:00,
2013-04-01 17:45:00,74.5,64.0,29.95,SSE,163,8.7,8.7,69,0.00,,,0.02,TxWx,2013-04-01 21:45:00,
2013-04-01 17:47:00,74.7,64.0,29.95,SSE,163,8.0,8.0,70,0.00,,,0.02,TxWx,2013-04-01 21:47:00,
2013-04-01 17:48:00,74.6,64.0,29.95,WSW,253,5.0,5.6,69,0.00,,,0.02,TxWx,2013-04-01 21:48:00,
2013-04-01 17:52:00,74.8,64.0,29.95,WSW,253,5.0,5.0,69,0.00,,,0.02,TxWx,2013-04-01 21:52:00,
2013-04-01 17:54:00,74.7,64.0,29.95,South,186,6.2,6.2,69,0.00,,,0.02,TxWx,2013-04-01 21:54:00,
2013-04-01 17:55:00,74.8,64.0,29.95,SSW,208,6.8,8.7,68,0.00,,,0.02,TxWx,2013-04-01 21:55:00,
2013-04-01 17:58:00,75.0,63.0,29.95,SSE,163,10.5,10.5,68,0.00,,,0.02,TxWx,2013-04-01 21:58:00,
2013-04-01 17:59:00,74.8,63.0,29.95,SSE,163,5.0,5.6,66,0.00,,,0.02,TxWx,2013-04-01 21:59:00,
2013-04-01 18:00:00,74.9,63.0,29.95,SW,231,5.0,6.2,66,0.00,,,0.02,TxWx,2013-04-01 22:00:00,
2013-04-01 18:05:00,74.9,62.0,29.95,SSW,208,5.0,5.0,65,0.00,,,0.02,TxWx,2013-04-01 22:05:00,
2013-04-01 18:06:00,74.9,62.0,29.95,SSW,208,5.6,5.6,65,0.00,,,0.02,TxWx,2013-04-01 22:06:00,
2013-04-01 18:07:00,74.9,62.0,29.95,SE,141,8.0,8.0,65,0.00,,,0.02,TxWx,2013-04-01 22:07:00,
2013-04-01 18:10:00,74.9,62.0,29.95,SE,141,3.1,3.7,65,0.00,,,0.02,TxWx,2013-04-01 22:10:00,
2013-04-01 18:11:00,74.9,62.0,29.95,East,96,8.0,9.3,65,0.00,,,0.02,TxWx,2013-04-01 22:11:00,
2013-04-01 18:13:00,75.0,62.0,29.95,South,186,6.2,6.2,65,0.00,,,0.02,TxWx,2013-04-01 22:13:00,
2013-04-01 18:16:00,75.3,62.0,29.96,SE,141,6.8,6.8,65,0.00,,,0.02,TxWx,2013-04-01 22:16:00,
2013-04-01 18:17:00,75.4,63.0,29.96,South,186,3.1,3.7,66,0.00,,,0.02,TxWx,2013-04-01 22:17:00,
2013-04-01 18:18:00,75.4,62.0,29.96,SSW,208,5.0,6.2,65,0.00,,,0.02,TxWx,2013-04-01 22:18:00,
2013-04-01 18:21:00,75.6,63.0,29.95,South,186,5.6,6.2,64,0.00,,,0.02,TxWx,2013-04-01 22:21:00,
2013-04-01 18:22:00,75.8,63.0,29.96,SSE,163,6.2,6.8,64,0.00,,,0.02,TxWx,2013-04-01 22:22:00,
2013-04-01 18:27:00,76.0,64.0,29.96,South,186,3.7,3.7,67,0.00,,,0.02,TxWx,2013-04-01 22:27:00,
2013-04-01 18:32:00,75.8,64.0,29.95,South,186,5.0,5.6,67,0.00,,,0.02,TxWx,2013-04-01 22:32:00,
2013-04-01 18:37:00,75.9,64.0,29.96,South,186,1.2,1.9,67,0.00,,,0.02,TxWx,2013-04-01 22:37:00,
2013-04-01 18:41:00,75.9,64.0,29.96,South,186,6.2,6.2,67,0.00,,,0.02,TxWx,2013-04-01 22:41:00,
2013-04-01 18:42:00,75.8,64.0,29.96,SSE,163,5.0,6.2,67,0.00,,,0.02,TxWx,2013-04-01 22:42:00,
2013-04-01 18:43:00,75.8,64.0,29.96,SSW,208,2.5,3.1,68,0.00,,,0.02,TxWx,2013-04-01 22:43:00,
2013-04-01 18:46:00,75.7,65.0,29.96,SSW,208,5.6,6.2,68,0.00,,,0.02,TxWx,2013-04-01 22:46:00,
2013-04-01 18:47:00,75.7,65.0,29.96,SSE,163,4.3,4.3,68,0.00,,,0.02,TxWx,2013-04-01 22:47:00,
2013-04-01 18:51:00,75.6,65.0,29.96,South,186,3.7,3.7,69,0.00,,,0.02,TxWx,2013-04-01 22:51:00,
2013-04-01 18:52:00,75.6,65.0,29.96,South,186,6.2,6.2,69,0.00,,,0.02,TxWx,2013-04-01 22:52:00,
2013-04-01 18:53:00,75.6,65.0,29.96,South,186,5.6,5.6,69,0.00,,,0.02,TxWx,2013-04-01 22:53:00,
2013-04-01 18:55:00,75.7,65.0,29.97,South,186,3.7,4.3,68,0.00,,,0.02,TxWx,2013-04-01 22:55:00,
2013-04-01 18:56:00,75.7,65.0,29.97,South,186,2.5,2.5,68,0.00,,,0.02,TxWx,2013-04-01 22:56:00,
2013-04-01 18:59:00,75.8,65.0,29.96,SSE,163,4.3,5.0,68,0.00,,,0.02,TxWx,2013-04-01 22:59:00,
2013-04-01 19:01:00,75.9,65.0,29.96,SE,141,4.3,4.3,69,0.00,,,0.02,TxWx,2013-04-01 23:01:00,
2013-04-01 19:02:00,75.9,65.0,29.96,SSE,163,4.3,5.6,70,0.00,,,0.02,TxWx,2013-04-01 23:02:00,
2013-04-01 19:03:00,76.0,65.0,29.97,SSE,163,4.3,5.0,70,0.00,,,0.02,TxWx,2013-04-01 23:03:00,
2013-04-01 19:07:00,75.7,65.0,29.96,SW,231,1.2,1.9,70,0.00,,,0.02,TxWx,2013-04-01 23:07:00,
2013-04-01 19:08:00,75.6,65.0,29.97,South,186,5.0,5.0,70,0.00,,,0.02,TxWx,2013-04-01 23:08:00,
2013-04-01 19:09:00,75.6,65.0,29.96,SSE,163,5.0,5.0,70,0.00,,,0.02,TxWx,2013-04-01 23:09:00,
2013-04-01 19:12:00,75.8,66.0,29.97,SSE,163,2.5,2.5,72,0.00,,,0.02,TxWx,2013-04-01 23:12:00,
2013-04-01 19:16:00,75.6,66.0,29.97,SSE,163,4.3,4.3,72,0.00,,,0.02,TxWx,2013-04-01 23:16:00,
2013-04-01 19:17:00,75.7,66.0,29.97,SW,231,1.9,1.9,72,0.00,,,0.02,TxWx,2013-04-01 23:17:00,
2013-04-01 19:18:00,75.7,66.0,29.97,SW,231,1.2,1.2,72,0.00,,,0.02,TxWx,2013-04-01 23:18:00,
2013-04-01 19:20:00,75.4,65.0,29.97,South,186,1.2,1.2,72,0.00,,,0.02,TxWx,2013-04-01 23:20:00,
2013-04-01 19:23:00,75.2,65.0,29.97,SSW,208,1.2,1.9,72,0.00,,,0.02,TxWx,2013-04-01 23:23:00,
2013-04-01 19:25:00,75.2,65.0,29.97,West,276,1.9,1.9,72,0.00,,,0.02,TxWx,2013-04-01 23:25:00,
2013-04-01 19:27:00,75.2,65.0,29.97,WSW,253,1.2,1.2,71,0.00,,,0.02,TxWx,2013-04-01 23:27:00,
2013-04-01 19:30:00,75.2,65.0,29.97,SW,231,4.3,4.3,71,0.00,,,0.02,TxWx,2013-04-01 23:30:00,
2013-04-01 19:31:00,75.2,65.0,29.97,NW,321,1.9,1.9,71,0.00,,,0.02,TxWx,2013-04-01 23:31:00,
2013-04-01 19:32:00,75.3,65.0,29.97,WSW,253,0.6,0.6,71,0.00,,,0.02,TxWx,2013-04-01 23:32:00,
2013-04-01 19:35:00,75.3,65.0,29.97,WSW,253,1.2,1.2,71,0.00,,,0.02,TxWx,2013-04-01 23:35:00,
2013-04-01 19:36:00,75.3,65.0,29.97,NW,321,1.2,1.2,71,0.00,,,0.02,TxWx,2013-04-01 23:36:00,
2013-04-01 19:38:00,75.4,65.0,29.97,SW,231,1.2,1.2,70,0.00,,,0.02,TxWx,2013-04-01 23:38:00,
2013-04-01 19:40:00,75.5,65.0,29.98,SW,231,1.9,1.9,70,0.00,,,0.02,TxWx,2013-04-01 23:40:00,
2013-04-01 19:41:00,75.4,65.0,29.97,SW,231,0.6,1.2,70,0.00,,,0.02,TxWx,2013-04-01 23:41:00,
2013-04-01 19:43:00,75.5,65.0,29.97,SW,231,1.9,1.9,70,0.00,,,0.02,TxWx,2013-04-01 23:43:00,
2013-04-01 19:45:00,75.5,65.0,29.97,WSW,253,1.2,1.2,70,0.00,,,0.02,TxWx,2013-04-01 23:45:00,
2013-04-01 19:47:00,75.4,65.0,29.97,WSW,253,1.2,1.2,70,0.00,,,0.02,TxWx,2013-04-01 23:47:00,
2013-04-01 19:48:00,75.4,65.0,29.97,WSW,253,1.2,1.2,70,0.00,,,0.02,TxWx,2013-04-01 23:48:00,
2013-04-01 19:50:00,75.4,65.0,29.98,WSW,253,0.6,1.2,70,0.00,,,0.02,TxWx,2013-04-01 23:50:00,
2013-04-01 19:52:00,75.4,65.0,29.97,WSW,253,1.9,1.9,70,0.00,,,0.02,TxWx,2013-04-01 23:52:00,
2013-04-01 19:53:00,75.4,65.0,29.97,SSW,208,1.9,1.9,70,0.00,,,0.02,TxWx,2013-04-01 23:53:00,
2013-04-01 19:56:00,75.4,65.0,29.98,SW,231,1.9,1.9,70,0.00,,,0.02,TxWx,2013-04-01 23:56:00,
2013-04-01 19:58:00,75.4,64.0,29.97,WSW,253,1.9,1.9,70,0.00,,,0.02,TxWx,2013-04-01 23:58:00,
2013-04-01 19:59:00,75.5,64.0,29.97,SW,231,1.2,1.2,70,0.00,,,0.02,TxWx,2013-04-01 23:59:00,
2013-04-01 20:04:00,75.6,65.0,29.98,WSW,253,0.6,0.6,69,0.00,,,0.02,TxWx,2013-04-02 00:04:00,
2013-04-01 20:05:00,75.6,65.0,29.98,SW,231,0.6,0.6,69,0.00,,,0.02,TxWx,2013-04-02 00:05:00,
2013-04-01 20:10:00,75.6,65.0,29.98,SW,231,1.9,1.9,69,0.00,,,0.02,TxWx,2013-04-02 00:10:00,
2013-04-01 20:11:00,75.5,65.0,29.98,WSW,253,1.9,1.9,69,0.00,,,0.02,TxWx,2013-04-02 00:11:00,
2013-04-01 20:12:00,75.6,65.0,29.98,WSW,253,1.9,1.9,69,0.00,,,0.02,TxWx,2013-04-02 00:12:00,
2013-04-01 20:16:00,75.5,65.0,29.98,SW,231,1.2,1.9,69,0.00,,,0.02,TxWx,2013-04-02 00:16:00,
2013-04-01 20:17:00,75.6,65.0,29.98,WSW,253,1.9,1.9,69,0.00,,,0.02,TxWx,2013-04-02 00:17:00,
2013-04-01 20:18:00,75.5,65.0,29.98,West,276,2.5,2.5,69,0.00,,,0.02,TxWx,2013-04-02 00:18:00,
2013-04-01 20:21:00,75.7,65.0,29.98,WSW,253,1.9,2.5,69,0.00,,,0.02,TxWx,2013-04-02 00:21:00,
2013-04-01 20:22:00,75.7,65.0,29.98,WSW,253,3.7,3.7,69,0.00,,,0.02,TxWx,2013-04-02 00:22:00,
2013-04-01 20:23:00,75.7,65.0,29.98,SW,231,3.1,3.7,69,0.00,,,0.02,TxWx,2013-04-02 00:23:00,
2013-04-01 20:27:00,75.9,65.0,29.99,WSW,253,3.7,3.7,68,0.00,,,0.02,TxWx,2013-04-02 00:27:00,
2013-04-01 20:29:00,75.9,64.0,29.98,West,276,3.7,4.3,68,0.00,,,0.02,TxWx,2013-04-02 00:29:00,
2013-04-01 20:31:00,76.0,64.0,29.99,WSW,253,3.7,3.7,67,0.00,,,0.02,TxWx,2013-04-02 00:31:00,
2013-04-01 20:32:00,76.0,64.0,29.99,WSW,253,5.0,5.0,68,0.00,,,0.02,TxWx,2013-04-02 00:32:00,
2013-04-01 20:33:00,76.0,64.0,29.99,SSW,208,6.2,6.2,67,0.00,,,0.02,TxWx,2013-04-02 00:33:00,
2013-04-01 20:36:00,76.0,64.0,29.98,WSW,253,4.3,4.3,68,0.00,,,0.02,TxWx,2013-04-02 00:36:00,
2013-04-01 20:39:00,76.0,64.0,29.99,WSW,253,4.3,4.3,67,0.00,,,0.02,TxWx,2013-04-02 00:39:00,
2013-04-01 20:42:00,76.1,64.0,29.99,West,276,5.0,5.0,67,0.00,,,0.02,TxWx,2013-04-02 00:42:00,
2013-04-01 20:44:00,76.1,64.0,29.99,WSW,253,5.0,5.0,67,0.00,,,0.02,TxWx,2013-04-02 00:44:00,
2013-04-01 20:47:00,76.0,64.0,29.99,WSW,253,4.3,4.3,67,0.00,,,0.02,TxWx,2013-04-02 00:47:00,
2013-04-01 20:49:00,76.0,64.0,29.99,WSW,253,6.8,6.8,67,0.00,,,0.02,TxWx,2013-04-02 00:49:00,
2013-04-01 20:53:00,76.0,65.0,29.99,West,276,3.7,3.7,68,0.00,,,0.02,TxWx,2013-04-02 00:53:00,
2013-04-01 20:54:00,75.9,65.0,29.99,WSW,253,3.7,3.7,68,0.00,,,0.02,TxWx,2013-04-02 00:54:00,
2013-04-01 20:55:00,75.8,65.0,29.99,WSW,253,5.0,5.0,68,0.00,,,0.02,TxWx,2013-04-02 00:55:00,
2013-04-01 20:58:00,75.8,65.0,29.99,West,276,3.7,4.3,69,0.00,,,0.02,TxWx,2013-04-02 00:58:00,
2013-04-01 21:00:00,75.9,65.0,30.00,West,276,4.3,4.3,69,0.00,,,0.02,TxWx,2013-04-02 01:00:00,
2013-04-01 21:01:00,75.8,65.0,30.00,WSW,253,4.3,5.0,69,0.00,,,0.02,TxWx,2013-04-02 01:01:00,
2013-04-01 21:05:00,75.6,65.0,29.99,West,276,5.6,5.6,69,0.00,,,0.02,TxWx,2013-04-02 01:05:00,
2013-04-01 21:06:00,75.6,65.0,29.99,WNW,298,5.0,5.0,69,0.00,,,0.02,TxWx,2013-04-02 01:06:00,
2013-04-01 21:07:00,75.6,65.0,29.99,WSW,253,4.3,4.3,69,0.00,,,0.02,TxWx,2013-04-02 01:07:00,
2013-04-01 21:10:00,75.6,65.0,29.99,WSW,253,4.3,4.3,69,0.00,,,0.02,TxWx,2013-04-02 01:10:00,
2013-04-01 21:12:00,75.6,65.0,30.00,WNW,298,3.7,3.7,69,0.00,,,0.02,TxWx,2013-04-02 01:12:00,
2013-04-01 21:13:00,75.6,65.0,30.00,WSW,253,4.3,5.0,70,0.00,,,0.02,TxWx,2013-04-02 01:13:00,
2013-04-01 21:16:00,75.6,65.0,30.00,West,276,7.4,7.4,69,0.00,,,0.02,TxWx,2013-04-02 01:16:00,
2013-04-01 21:18:00,75.7,65.0,30.00,WSW,253,5.0,5.0,69,0.00,,,0.02,TxWx,2013-04-02 01:18:00,
2013-04-01 21:19:00,75.7,65.0,30.00,WSW,253,4.3,4.3,69,0.00,,,0.02,TxWx,2013-04-02 01:19:00,
2013-04-01 21:22:00,75.6,65.0,30.00,West,276,3.7,4.3,70,0.00,,,0.02,TxWx,2013-04-02 01:22:00,
2013-04-01 21:24:00,75.6,65.0,30.00,West,276,5.6,6.8,69,0.00,,,0.02,TxWx,2013-04-02 01:24:00,
2013-04-01 21:26:00,75.8,65.0,30.00,WSW,253,6.8,7.4,68,0.00,,,0.02,TxWx,2013-04-02 01:26:00,
2013-04-01 21:29:00,75.7,65.0,30.00,SSW,208,4.3,5.6,69,0.00,,,0.02,TxWx,2013-04-02 01:29:00,
2013-04-01 21:30:00,75.8,65.0,30.00,WSW,253,4.3,5.0,69,0.00,,,0.02,TxWx,2013-04-02 01:30:00,
2013-04-01 21:32:00,75.7,65.0,30.00,West,276,5.6,6.2,69,0.00,,,0.02,TxWx,2013-04-02 01:32:00,
2013-04-01 21:34:00,75.5,65.0,30.00,WSW,253,7.4,8.0,70,0.00,,,0.02,TxWx,2013-04-02 01:34:00,
2013-04-01 21:36:00,75.5,64.0,30.01,West,276,9.3,9.3,70,0.00,,,0.02,TxWx,2013-04-02 01:36:00,
2013-04-01 21:38:00,75.5,65.0,30.00,WNW,298,5.0,5.6,70,0.00,,,0.02,TxWx,2013-04-02 01:38:00,
2013-04-01 21:40:00,75.4,64.0,30.01,West,276,5.6,6.2,70,0.00,,,0.02,TxWx,2013-04-02 01:40:00,
2013-04-01 21:43:00,75.3,64.0,30.01,WSW,253,5.6,6.2,70,0.00,,,0.02,TxWx,2013-04-02 01:43:00,
2013-04-01 21:46:00,75.3,64.0,30.01,WNW,298,8.0,8.0,69,0.00,,,0.02,TxWx,2013-04-02 01:46:00,
2013-04-01 21:48:00,75.3,64.0,30.00,WSW,253,6.2,6.8,69,0.00,,,0.02,TxWx,2013-04-02 01:48:00,
2013-04-01 21:51:00,75.2,64.0,30.01,WNW,298,6.2,7.4,69,0.00,,,0.02,TxWx,2013-04-02 01:51:00,
2013-04-01 21:56:00,75.1,64.0,30.01,WSW,253,8.0,8.0,69,0.00,,,0.02,TxWx,2013-04-02 01:56:00,
2013-04-01 21:57:00,75.1,64.0,30.01,WSW,253,5.6,5.6,69,0.00,,,0.02,TxWx,2013-04-02 01:57:00,
2013-04-01 21:59:00,75.0,64.0,30.01,WSW,253,8.0,8.0,69,0.00,,,0.02,TxWx,2013-04-02 01:59:00,
2013-04-01 22:02:00,75.1,64.0,30.01,West,276,6.2,6.2,69,0.00,,,0.02,TxWx,2013-04-02 02:02:00,
2013-04-01 22:03:00,75.1,64.0,30.01,West,276,7.4,7.4,69,0.00,,,0.02,TxWx,2013-04-02 02:03:00,
2013-04-01 22:04:00,75.1,64.0,30.01,West,276,6.8,6.8,68,0.00,,,0.02,TxWx,2013-04-02 02:04:00,
2013-04-01 22:07:00,75.1,64.0,30.01,West,276,4.3,4.3,70,0.00,,,0.02,TxWx,2013-04-02 02:07:00,
2013-04-01 22:09:00,74.9,64.0,30.01,West,276,6.8,8.0,69,0.00,,,0.02,TxWx,2013-04-02 02:09:00,
2013-04-01 22:10:00,75.0,64.0,30.01,West,276,6.2,6.8,69,0.00,,,0.02,TxWx,2013-04-02 02:10:00,
2013-04-01 22:13:00,75.0,65.0,30.01,West,276,5.6,5.6,70,0.00,,,0.02,TxWx,2013-04-02 02:13:00,
2013-04-01 22:14:00,74.9,65.0,30.01,West,276,6.2,7.4,70,0.00,,,0.02,TxWx,2013-04-02 02:14:00,
2013-04-01 22:15:00,74.8,64.0,30.01,WSW,253,6.2,6.8,70,0.00,,,0.02,TxWx,2013-04-02 02:15:00,
2013-04-01 22:19:00,74.7,64.0,30.01,WSW,253,5.0,6.8,70,0.00,,,0.02,TxWx,2013-04-02 02:19:00,
2013-04-01 22:21:00,74.7,64.0,30.01,WSW,253,5.6,6.2,70,0.00,,,0.02,TxWx,2013-04-02 02:21:00,
2013-04-01 22:23:00,74.7,65.0,30.01,West,276,5.0,5.6,70,0.00,,,0.02,TxWx,2013-04-02 02:23:00,
2013-04-01 22:24:00,74.6,64.0,30.01,WSW,253,6.8,6.8,70,0.00,,,0.02,TxWx,2013-04-02 02:24:00,
2013-04-01 22:26:00,74.6,65.0,30.01,West,276,5.6,5.6,70,0.00,,,0.02,TxWx,2013-04-02 02:26:00,
2013-04-01 22:29:00,74.5,63.0,30.02,West,276,6.8,8.0,69,0.00,,,0.02,TxWx,2013-04-02 02:29:00,
2013-04-01 22:31:00,74.5,63.0,30.01,West,276,8.7,8.7,69,0.00,,,0.02,TxWx,2013-04-02 02:31:00,
2013-04-01 22:32:00,74.5,64.0,30.02,West,276,6.8,7.4,69,0.00,,,0.02,TxWx,2013-04-02 02:32:00,
2013-04-01 22:36:00,74.6,64.0,30.02,West,276,5.6,5.6,69,0.00,,,0.02,TxWx,2013-04-02 02:36:00,
2013-04-01 22:37:00,74.6,64.0,30.02,West,276,6.2,6.8,69,0.00,,,0.02,TxWx,2013-04-02 02:37:00,
2013-04-01 22:41:00,74.5,63.0,30.02,West,276,4.3,5.0,69,0.00,,,0.02,TxWx,2013-04-02 02:41:00,
2013-04-01 22:43:00,74.4,63.0,30.02,West,276,5.0,5.0,69,0.00,,,0.02,TxWx,2013-04-02 02:43:00,
2013-04-01 22:44:00,74.4,63.0,30.02,West,276,6.2,6.2,69,0.00,,,0.02,TxWx,2013-04-02 02:44:00,
2013-04-01 22:47:00,74.4,63.0,30.02,West,276,8.0,8.0,69,0.00,,,0.02,TxWx,2013-04-02 02:47:00,
2013-04-01 22:50:00,74.4,63.0,30.02,West,276,8.0,8.0,70,0.00,,,0.02,TxWx,2013-04-02 02:50:00,
2013-04-01 22:53:00,74.3,63.0,30.02,West,276,8.7,8.7,69,0.00,,,0.02,TxWx,2013-04-02 02:53:00,
2013-04-01 22:56:00,74.4,63.0,30.02,West,276,8.0,8.0,69,0.00,,,0.02,TxWx,2013-04-02 02:56:00,
2013-04-01 22:58:00,74.3,62.0,30.02,WNW,298,9.3,9.3,67,0.00,,,0.02,TxWx,2013-04-02 02:58:00,
2013-04-01 23:00:00,74.4,62.0,30.02,WNW,298,9.3,9.9,67,0.00,,,0.02,TxWx,2013-04-02 03:00:00,
2013-04-01 23:02:00,74.6,63.0,30.02,WNW,298,5.6,5.6,67,0.00,,,0.02,TxWx,2013-04-02 03:02:00,
2013-04-01 23:03:00,74.5,63.0,30.02,WNW,298,7.4,7.4,68,0.00,,,0.02,TxWx,2013-04-02 03:03:00,
2013-04-01 23:06:00,74.2,62.0,30.02,West,276,9.9,9.9,67,0.00,,,0.02,TxWx,2013-04-02 03:06:00,
2013-04-01 23:08:00,74.3,62.0,30.02,WNW,298,5.6,5.6,67,0.00,,,0.02,TxWx,2013-04-02 03:08:00,
2013-04-01 23:10:00,74.2,62.0,30.02,West,276,5.6,6.2,67,0.00,,,0.02,TxWx,2013-04-02 03:10:00,
2013-04-01 23:14:00,74.1,62.0,30.02,West,276,6.8,7.4,67,0.00,,,0.02,TxWx,2013-04-02 03:14:00,
2013-04-01 23:15:00,74.1,62.0,30.02,West,276,9.3,9.3,67,0.00,,,0.02,TxWx,2013-04-02 03:15:00,
2013-04-01 23:16:00,74.1,63.0,30.02,NW,321,5.0,5.6,68,0.00,,,0.02,TxWx,2013-04-02 03:16:00,
2013-04-01 23:17:00,74.0,62.0,30.02,WNW,298,6.8,6.8,67,0.00,,,0.02,TxWx,2013-04-02 03:17:00,
2013-04-01 23:19:00,74.0,62.0,30.02,WNW,298,6.8,6.8,67,0.00,,,0.02,TxWx,2013-04-02 03:19:00,
2013-04-01 23:21:00,73.9,63.0,30.02,West,276,7.4,7.4,68,0.00,,,0.02,TxWx,2013-04-02 03:21:00,
2013-04-01 23:24:00,73.8,63.0,30.02,WNW,298,5.0,5.0,68,0.00,,,0.02,TxWx,2013-04-02 03:24:00,
2013-04-01 23:25:00,73.7,63.0,30.02,West,276,7.4,7.4,68,0.00,,,0.02,TxWx,2013-04-02 03:25:00,
2013-04-01 23:26:00,73.7,63.0,30.02,West,276,6.2,6.8,68,0.00,,,0.02,TxWx,2013-04-02 03:26:00,
2013-04-01 23:27:00,73.7,63.0,30.02,West,276,5.6,5.6,68,0.00,,,0.02,TxWx,2013-04-02 03:27:00,
2013-04-01 23:30:00,73.5,62.0,30.02,West,276,9.3,9.3,67,0.00,,,0.02,TxWx,2013-04-02 03:30:00,
2013-04-01 23:31:00,73.6,63.0,30.02,West,276,6.2,7.4,68,0.00,,,0.02,TxWx,2013-04-02 03:31:00,
2013-04-01 23:36:00,73.4,62.0,30.02,NW,321,6.2,6.8,68,0.00,,,0.02,TxWx,2013-04-02 03:36:00,
2013-04-01 23:39:00,73.4,62.0,30.02,WNW,298,8.7,9.3,69,0.00,,,0.02,TxWx,2013-04-02 03:39:00,
2013-04-01 23:42:00,73.3,62.0,30.02,West,276,6.2,7.4,68,0.00,,,0.02,TxWx,2013-04-02 03:42:00,
2013-04-01 23:45:00,73.1,62.0,30.02,West,276,6.2,6.2,69,0.00,,,0.02,TxWx,2013-04-02 03:45:00,
2013-04-01 23:46:00,73.3,62.0,30.02,West,276,8.7,8.7,70,0.00,,,0.02,TxWx,2013-04-02 03:46:00,
2013-04-01 23:47:00,73.1,62.0,30.02,West,276,7.4,8.0,69,0.00,,,0.02,TxWx,2013-04-02 03:47:00,
2013-04-01 23:49:00,73.1,62.0,30.02,West,276,7.4,8.0,69,0.00,,,0.02,TxWx,2013-04-02 03:49:00,
2013-04-01 23:51:00,73.0,62.0,30.02,West,276,7.4,7.4,70,0.00,,,0.02,TxWx,2013-04-02 03:51:00,
2013-04-01 23:52:00,73.0,63.0,30.02,West,276,5.6,6.8,70,0.00,,,0.02,TxWx,2013-04-02 03:52:00,
2013-04-01 23:53:00,73.0,63.0,30.02,West,276,7.4,7.4,70,0.00,,,0.02,TxWx,2013-04-02 03:53:00,
2013-04-01 23:55:00,72.9,63.0,30.02,West,276,6.2,6.2,70,0.00,,,0.02,TxWx,2013-04-02 03:55:00,
2013-04-01 23:58:00,72.9,63.0,30.02,West,276,5.6,6.2,70,0.00,,,0.02,TxWx,2013-04-02 03:58:00,